     2.10           OBSERVATION DATA    G (GPS)             RINEX VERSION / TYPE
teqc 2002Mar14 Lou Estey 20020315 16:14:28UTC               PGM / RUN BY / DATE
Solaris 2.7|Ultra 2|cc SC5.0|=+-|*Sparc                     COMMENT
-Unknown-                                                   MARKER NAME
-Unknown- -Unknown-                                         OBSERVER / AGENCY
-Unknown- ROCKWELL ZODIAC OEM -Unknown-                     REC # / TYPE / VERS
-Unknown- -Unknown-                                         ANT # / TYPE
  -740385.7867 -5457005.2960  3207230.7527                  APPROX POSITION XYZ
        0.0000        0.0000        0.0000                  ANTENNA: DELTA H/E/N
     1     0                                                WAVELENGTH FACT L1/2
     4    L1    C1    D1    S1                              # / TYPES OF OBSERV
SNR is mapped to RINEX snr flag value [1-9]                 COMMENT
L1: 0 -> 1; 12 -> 5; 25 -> 9                                COMMENT
  1997     2    28    18    54   26.8338366     GPS         TIME OF FIRST OBS
                                                            END OF HEADER
 97  2 28 18 54 26.8338366  0  9G31G27G19G 7G18G 2G 3G10G15
  91122317.201 9  17418115.314        1408.553          25.188
  96525638.043 8  18276145.323        5657.559          20.430
  88563994.071 9  16800895.458        3700.959          25.730
 115159429.758 4  21569328.634        6650.679          10.492
  92157603.261 8  17801279.466         590.285          21.652
 107181083.086 7  20051056.899        4873.950          18.695
 106738443.324 6  20373215.631         -57.164          15.961
 117814344.267 4  22122699.092        2263.339           9.105
 108250041.704 7  20882027.149        5748.489          17.160
 97  2 28 18 54 27.8338423  0  9G31G27G19G 7G18G 2G 3G10G15
  91120911.894 9  17417847.894        1402.421          25.035
  96519983.536 8  18275069.302        5651.787          20.734
  88560296.548 9  16800191.849        3694.580          25.754
 115152781.991 4  21568063.612        6645.029          10.352
  92157015.967 8  17801167.706         584.026          21.879
 107176211.999 7  20050129.961        4868.207          18.824
 106738503.788 6  20373227.134         -63.506          16.117
 117812084.101 4  22122269.011        2257.277           8.977
 108244296.445 7  20880933.862        5742.731          17.695
 97  2 28 18 54 28.8338481  0  9G31G27G19G 7G18G 2G 3G10G15
  91119512.667 9  17417581.633        1395.969          25.066
  96514334.654 8  18273994.351        5646.278          20.922
  88556604.854 9  16799489.348        3688.837          25.152
 115146139.803 5  21566799.652        6639.600          10.633
  92156434.633 8  17801057.078         578.378          21.898
 107171346.564 7  20049204.104        4862.817          18.996
 106738570.033 6  20373239.741         -69.156          16.410
 117809829.775 4  22121840.036        2251.344           9.129
 108238556.736 7  20879841.639        5737.049          18.023
 97  2 28 18 54 29.8338538  0  9G31G27G19G 7G18G 2G 3G10G15
  91118119.239 9  17417316.474        1390.745          25.012
  96508691.097 8  18272920.413        5641.265          20.793
  88552918.757 9  16798787.908        3683.727          24.938
 115139502.853 5  21565536.703        6634.043          10.875
  92155858.991 8  17800947.535         572.764          21.773
 107166486.484 7  20048279.265        4857.559          18.867
 106738641.697 6  20373253.380         -74.396          16.629
 117807581.064 4  22121412.138        2245.563           9.828
 108232822.219 7  20878750.408        5731.647          18.059
 97  2 28 18 54 30.8338594  0  9G31G27G19G 7G18G 2G 3G10G15
  91116731.350 9  17417052.369        1385.009          25.027
  96503052.628 8  18271847.444        5636.205          21.184
  88549237.975 9  16798087.476        3677.613          24.730
 115132870.879 5  21564274.704        6629.480          11.172
  92155288.764 8  17800839.021         567.503          21.883
 107161631.499 7  20047355.397        4852.487          18.762
 106738718.582 6  20373268.013         -79.380          16.566
 117805337.661 4  22120985.251        2240.652          10.258
 108227092.668 7  20877660.122        5727.091          18.141
 97  2 28 18 54 31.8338648  0  9G31G27G19G 7G18G 2G 3G10G15
  91115349.295 9  17416789.376        1379.261          25.078
  96497419.479 8  18270775.488        5630.416          21.555
  88545562.845 9  16797388.119        3671.806          24.574
 115126244.128 5  21563013.706        6624.179          11.012
  92154724.234 8  17800731.591         561.678          21.539
 107156781.864 7  20046432.545        4846.944          18.461
 106738800.889 6  20373283.679         -85.257          16.828
 117803099.852 5  22120559.433        2235.167          10.805
 108221368.312 7  20876570.829        5721.722          18.277
 97  2 28 18 54 32.8338708  0  9G31G27G19G 7G18G 2G 3G10G15
  91113973.140 9  17416527.503        1373.072          24.668
  96491791.869 8  18269704.590        5624.776          21.535
  88541893.482 9  16796689.860        3666.687          24.660
 115119622.757 5  21561753.688        6618.342          11.023
  92154165.559 8  17800625.274         555.921          21.379
 107151937.752 7  20045510.743        4841.353          18.492
 106738888.820 7  20373300.414         -90.913          16.996
 117800867.828 5  22120134.721        2228.882          10.563
 108215649.307 7  20875482.559        5716.968          18.680
 97  2 28 18 54 33.8338765  0  9G31G27G19G 7G18G 2G 3G10G15
  91112603.143 9  17416266.803        1366.944          24.738
  96486169.905 8  18268634.766        5619.278          21.617
  88538230.033 9  16795992.728        3660.307          25.016
 115113007.005 5  21560494.747        6612.852          11.043
  92153612.912 8  17800520.103         549.430          21.398
 107147099.345 7  20044590.026        4835.582          18.594
 106738982.581 6  20373318.259         -96.718          16.637
 117798641.796 5  22119711.142        2223.642          10.660
 108209935.903 7  20874395.358        5710.889          18.805
 97  2 28 18 54 34.8338822  0  9G31G27G19G 7G18G 2G 3G10G15
  91111238.977 9  17416007.213        1361.560          24.598
  96480553.345 8  18267565.970        5613.965          22.313
  88534572.189 9  16795296.664        3655.505          25.117
 115106396.522 5  21559236.807        6608.216          11.250
  92153066.032 8  17800416.031         544.127          21.336
 107142266.339 7  20043670.339        4830.494          18.520
 106739081.832 6  20373337.149        -101.888          16.797
 117796421.352 5  22119288.636        2217.609          10.648
 108204227.747 7  20873309.157        5705.750          18.762
 97  2 28 18 54 35.8338879  0  9G31G27G19G 7G18G 2G 3G10G15
  91109880.263 9  17415748.661        1356.329          24.453
  96474941.780 8  18266498.126        5608.968          22.566
  88530919.650 9  16794601.612        3650.112          25.586
 115099790.909 5  21557979.786        6603.411          11.422
  92152524.429 8  17800312.964         538.767          21.691
 107137438.362 7  20042751.604        4825.612          18.316
 106739186.202 7  20373357.011        -106.681          17.422
 117794206.221 4  22118867.140        2212.851          10.285
 108198524.494 7  20872223.889        5700.430          18.750
 97  2 28 18 54 36.8338936  0  9G31G27G19G 7G18G 2G 3G10G15
  91108526.963 9  17415491.137        1350.409          24.605
  96469335.176 8  18265431.229        5604.178          22.789
  88527272.347 9  16793907.558        3645.043          25.586
 115093190.195 5  21556723.702        6598.478          11.512
  92151988.188 8  17800210.920         533.435          22.098
 107132615.379 7  20041833.819        4820.438          18.430
 106739295.654 7  20373377.839        -112.187          17.328
 117791996.341 4  22118446.639        2207.280          10.160
 108192826.038 7  20871139.530        5695.821          18.715
 97  2 28 18 54 37.8338993  0  9G31G27G19G 7G18G 2G 3G10G15
  91107179.215 9  17415234.670        1345.251          24.395
  96463733.640 8  18264365.291        5599.222          22.938
  88523630.377 9  16793214.516        3639.312          25.168
 115086594.441 5  21555468.568        6593.320          11.313
  92151457.371 8  17800109.907         528.218          22.070
 107127797.469 7  20040917.002        4815.531          18.434
 106739410.333 7  20373399.663        -117.547          17.418
 117789791.757 4  22118027.148        2202.003          10.316
 108187132.529 7  20870056.110        5690.977          18.406
 97  2 28 18 54 38.8339050  0  9G31G27G19G 7G18G 2G 3G10G15
  91105836.876 9  17414979.233        1339.540          24.652
  96458137.102 9  18263300.306        5594.079          23.523
  88519993.618 9  16792522.464        3634.491          25.895
 115080003.555 5  21554214.349        6588.557          11.480
  92150931.821 8  17800009.896         522.621          22.344
 107122984.562 7  20040001.136        4810.478          18.301
 106739530.066 7  20373422.446        -121.886          17.371
 117787592.454 5  22117608.663        2196.995          10.566
 108181443.916 7  20868973.615        5686.061          18.328
 97  2 28 18 54 39.8339107  0  9G31G27G19G 7G18G 2G 3G10G15
  91104499.815 9  17414724.799        1334.368          24.477
  96452545.372 9  18262236.235        5589.347          23.379
  88516361.979 9  16791831.387        3629.474          25.922
 115073417.436 5  21552961.067        6583.973          11.734
  92150411.446 8  17799910.869         517.679          22.289
 107118176.483 7  20039086.189        4805.588          18.133
 106739654.740 7  20373446.171        -127.362          17.352
 117785398.219 5  22117191.145        2191.354          10.543
 108175759.935 7  20867891.997        5681.713          17.773
 97  2 28 18 54 40.8339164  0  9G31G27G19G 7G18G 2G 3G10G15
  91103167.898 9  17414471.345        1329.475          24.500
  96446958.340 9  18261173.059        5584.871          23.438
  88512735.277 9  16791141.251        3624.681          26.109
 115066835.891 5  21551708.648        6579.243          11.742
  92149896.144 8  17799812.809         512.932          22.438
 107113373.154 7  20038172.144        4801.293          18.301
 106739784.214 7  20373470.807        -131.690          17.445
 117783208.972 4  22116774.577        2187.063          10.215
 108170080.543 7  20866811.237        5677.343          17.344
 97  2 28 18 54 41.8339221  0  9G31G27G19G 7G18G 2G 3G10G15
  91101840.783 9  17414218.804        1324.958          24.230
  96441375.712 9  18260110.724        5580.649          23.664
  88509113.165 9  16790451.989        3619.415          26.266
 115060258.625 5  21550457.034        6575.419          11.785
  92149385.526 8  17799715.641         508.267          22.609
 107108574.204 7  20037258.936        4796.748          18.688
 106739918.175 7  20373496.300        -135.802          17.680
 117781024.376 4  22116358.887        2182.633           9.531
 108164405.415 6  20865731.281        5672.686          16.773
 97  2 28 18 54 42.8339278  0  9G31G27G19G 7G18G 2G 3G10G15
  91100518.210 9  17413967.126        1320.213          23.988
  96435797.151 9  18259049.162        5576.664          23.680
  88505495.445 9  16789763.566        3616.102          26.516
 115053685.315 5  21549206.185        6570.925          11.660
  92148879.337 8  17799619.318         504.107          22.734
 107103779.349 7  20036346.507        4792.764          18.711
 106740056.366 7  20373522.596        -140.188          17.711
 117778844.168 4  22115944.037        2178.026           9.840
 108158734.227 6  20864652.073        5669.556          16.320
 97  2 28 18 54 43.8339335  0  9G31G27G19G 7G18G 2G 3G10G15
  91099199.991 9  17413716.277        1316.260          23.844
  96430222.511 9  18257988.349        5572.639          23.879
  88501881.889 9  16789075.934        3611.301          26.723
 115047115.871 5  21547956.041        6567.544          11.309
  92148377.380 8  17799523.800         499.451          23.223
 107098988.444 7  20035434.834        4788.751          19.211
 106740198.524 7  20373549.645        -143.994          18.000
 117776668.080 4  22115529.967        2173.852          10.000
 108153066.856 6  20863573.588        5665.767          16.023
 97  2 28 18 54 44.8339392  0  9G31G27G19G 7G18G 2G 3G10G15
  91097886.066 9  17413466.244        1311.762          23.449
  96424651.732 9  18256928.269        5568.838          23.930
  88498272.433 9  16788389.082        3607.540          26.734
 115040550.190 5  21546706.631        6564.062          11.598
  92147879.631 8  17799429.085         495.869          23.234
 107094201.390 7  20034523.896        4785.257          19.082
 106740344.688 7  20373577.458        -148.123          17.820
 117774496.141 4  22115116.693        2170.060          10.121
 108147403.236 6  20862495.816        5661.441          15.992
 97  2 28 18 54 45.8339449  0  9G31G27G19G 7G18G 2G 3G10G15
  91096576.233 8  17413216.989        1307.832          23.164
  96419084.626 9  18255868.892        5565.232          23.941
  88494666.895 9  16787702.974        3603.854          26.582
 115033988.032 5  21545457.895        6560.217          11.660
  92147385.885 9  17799335.132         491.781          23.445
 107089418.016 7  20033613.657        4781.720          18.945
 106740494.577 7  20373605.982        -151.690          18.148
 117772328.128 4  22114704.169        2166.002          10.047
 108141743.080 6  20861418.700        5658.182          15.566
 97  2 28 18 54 46.8339506  0  9G31G27G19G 7G18G 2G 3G10G15
  91095270.254 8  17412968.469        1304.319          23.129
  96413520.982 9  18254810.175        5562.307          24.465
  88491064.983 9  16787017.555        3599.913          26.664
 115027429.225 5  21544209.766        6557.510          11.480
  92146895.891 9  17799241.893         488.086          23.781
 107084638.078 7  20032704.070        4778.159          19.250
 106740648.030 7  20373635.182        -155.182          18.180
 117770163.792 4  22114292.347        2161.884          10.250
 108136086.231 6  20860342.212        5654.849          15.328
 97  2 28 18 54 47.8339563  0  9G31G27G19G 7G18G 2G 3G10G15
  91093968.008 8  17412720.658        1299.901          22.988
  96407960.577 9  18253752.074        5558.574          24.133
  88487466.655 9  16786332.818        3596.478          26.520
 115020873.637 5  21542962.271        6553.526          11.406
  92146409.518 9  17799149.342         484.616          23.680
 107079861.470 7  20031795.115        4774.806          18.832
 106740804.906 7  20373665.035        -158.556          18.480
 117768003.074 4  22113881.214        2158.481          10.215
 108130432.584 6  20859266.334        5652.005          15.328
 97  2 28 18 54 48.8339620  0  9G31G27G19G 7G18G 2G 3G10G15
  91092669.567 8  17412473.572        1296.601          22.828
  96402403.663 9  18252694.636        5555.320          24.293
  88483871.973 9  16785648.776        3593.042          26.750
 115014321.355 5  21541715.430        6550.777          11.102
  92145926.901 9  17799057.506         480.730          23.848
 107075088.289 7  20030886.811        4771.500          18.961
 106740965.278 7  20373695.552        -162.134          18.746
 117765846.062 4  22113470.780        2155.075          10.246
 108124782.228 6  20858191.084        5648.625          15.449
 97  2 28 18 54 49.8339677  0  9G31G27G19G 7G18G 2G 3G10G15
  91091375.209 8  17412227.263        1292.191          22.355
  96396850.351 9  18251637.883        5551.462          24.410
  88480281.229 9  16784965.486        3589.035          27.141
 115007772.581 5  21540469.241        6546.927          11.262
  92145448.253 9  17798966.427         476.665          24.016
 107070318.739 7  20029979.201        4767.578          18.898
 106741129.380 7  20373726.780        -165.918          18.719
 117763692.919 4  22113061.079        2151.223           9.898
 108119135.333 6  20857116.494        5644.615          15.332
 97  2 28 18 54 50.8339734  0  9G31G27G19G 7G18G 2G 3G10G15
  91090085.175 8  17411981.777        1288.133          22.410
  96391300.913 9  18250581.866        5547.356          24.449
  88476694.560 9  16784282.972        3584.999          27.344
 115001227.596 5  21539223.776        6542.862          11.406
  92144973.771 9  17798876.138         472.169          23.980
 107065553.062 7  20029072.327        4763.696          18.922
 106741297.480 7  20373758.768        -169.903          18.676
 117761543.869 4  22112652.150        2146.780          10.016
 108113492.144 6  20856042.612        5641.000          15.227
 97  2 28 18 54 51.8339791  0  9G31G27G19G 7G18G 2G 3G10G15
  91088799.455 8  17411737.111        1283.760          22.617
  96385755.418 9  18249526.599        5543.548          24.168
  88473112.087 9  16783601.258        3580.426          27.531
 114994686.398 5  21537979.039        6539.134          11.520
  92144503.572 9  17798786.665         468.214          24.066
 107060791.323 7  20028166.204        4759.740          19.117
 106741469.600 7  20373791.521        -174.204          18.434
 117759399.062 4  22112244.026        2142.035          10.148
 108107852.816 6  20854969.466        5637.409          15.617
 97  2 28 18 54 52.8339848  0  9G31G27G19G 7G18G 2G 3G10G15
  91087518.131 8  17411493.282        1279.420          22.555
  96380213.887 9  18248472.084        5539.750          24.250
  88469533.832 9  16782920.344        3576.263          27.496
 114988149.109 5  21536735.058        6535.457          11.426
  92144037.643 9  17798698.005         464.059          24.234
 107056033.598 7  20027260.848        4755.779          19.305
 106741645.783 7  20373825.048        -177.997          18.453
 117757258.440 4  22111836.705        2138.353          10.055
 108102217.251 6  20853897.044        5633.801          15.523
 97  2 28 18 54 53.8339905  0  9G31G27G19G 7G18G 2G 3G10G15
  91086241.042 8  17411250.258        1275.099          22.418
  96374676.173 9  18247418.297        5535.774          24.406
  88465959.610 9  16782240.195        3571.974          27.352
 114981615.485 5  21535491.783        6532.133          10.996
  92143575.843 9  17798610.131         460.053          24.359
 107051279.690 7  20026356.216        4752.423          19.250
 106741825.905 7  20373859.325        -181.979          18.445
 117755121.952 4  22111430.169        2135.129           9.973
 108096585.429 6  20852825.338        5629.731          15.754
 97  2 28 18 54 54.8339962  0  9G31G27G19G 7G18G 2G 3G10G15
  91084968.005 8  17411008.006        1271.234          22.430
  96369142.112 9  18246365.205        5532.212          24.422
  88462389.245 9  16781560.779        3568.631          27.133
 114975085.407 5  21534249.176        6528.210          10.625
  92143117.982 9  17798523.006         455.633          24.488
 107046529.415 7  20025452.274        4748.503          19.512
 106742009.739 7  20373894.309        -185.598          18.395
 117752989.349 4  22111024.370        2130.643          10.035
 108090957.045 6  20851754.291        5626.421          15.766
 97  2 28 18 54 55.8340020  0  9G31G27G19G 7G18G 2G 3G10G15
  91083699.121 8  17410766.543        1266.496          22.301
  96363611.746 9  18245312.821        5528.241          24.293
  88458822.828 9  16780882.113        3564.324          26.738
 114968558.830 5  21533007.221        6524.636          10.738
  92142664.145 9  17798436.647         451.781          24.340
 107041782.839 7  20024549.036        4744.665          19.762
 106742197.367 7  20373930.016        -189.983          18.418
 117750860.679 4  22110619.314        2126.630           9.996
 108085332.212 6  20850683.923        5622.413          15.875
 97  2 28 18 54 56.8340077  0  9G31G27G19G 7G18G 2G 3G10G15
  91082434.656 8  17410525.923        1262.070          21.750
  96358085.388 9  18244261.199        5524.263          24.285
  88455260.619 9  16780204.247        3559.669          26.801
 114962036.211 5  21531766.030        6520.799          10.563
  92142214.634 9  17798351.110         447.084          24.367
 107037040.298 7  20023646.563        4740.534          19.531
 106742389.106 7  20373966.504        -193.539          18.168
 117748736.287 4  22110215.077        2122.185          10.332
 108079711.284 6  20849614.302        5619.263          16.117
 97  2 28 18 54 57.8340134  0  9G31G27G19G 7G18G 2G 3G10G15
  91081174.489 8  17410286.121        1257.910          21.750
  96352562.914 9  18243210.315        5520.708          24.340
  88451702.564 9  16779527.173        3556.228          27.426
 114955517.325 5  21530525.560        6517.224          10.758
  92141769.296 9  17798266.370         443.289          24.484
 107032301.637 7  20022744.830        4736.949          19.855
 106742584.797 7  20374003.744        -197.815          18.121
 117746615.961 5  22109811.618        2117.688          10.621
 108074094.087 6  20848545.392        5615.070          16.477
 97  2 28 18 54 58.8340191  0  9G31G27G19G 7G18G 2G 3G10G15
  91079918.331 8  17410047.082        1254.162          21.500
  96347043.983 9  18242160.106        5517.215          24.313
  88448148.253 9  16778850.813        3552.428          27.516
 114949001.884 4  21529285.739        6514.044          10.277
  92141327.844 9  17798182.368         439.818          24.238
 107027566.514 8  20021843.772        4733.359          20.199
 106742784.160 7  20374041.685        -200.828          18.344
 117744499.503 5  22109408.893        2115.292          11.023
 108068480.280 6  20847477.128        5612.092          16.465
 97  2 28 18 54 59.8340249  0  9G31G27G19G 7G18G 2G 3G10G15
  91078665.735 8  17409808.719        1250.728          21.121
  96341528.249 9  18241110.503        5514.243          24.176
  88444597.398 9  16778175.112        3549.487          27.695
 114942489.531 4  21528046.496        6511.241           9.906
  92140889.899 9  17798099.034         436.631          24.469
 107022834.625 7  20020943.330        4730.110          20.082
 106742986.775 7  20374080.244        -204.078          18.215
 117742386.481 5  22109006.825        2111.743          11.262
 108062869.529 6  20846409.446        5609.315          16.652
 97  2 28 18 55  0.8340306  0  9G31G27G19G 7G18G 2G 3G10G15
  91077416.924 8  17409571.077        1246.715          20.945
  96336015.803 9  18240061.526        5510.881          23.973
  88441050.049 9  16777500.077        3545.781          27.578
 114935980.338 4  21526807.848        6507.620          10.121
  92140455.512 9  17798016.378         432.329          24.227
 107018105.978 8  20020043.505        4726.891          20.234
 106743192.763 7  20374119.445        -207.981          18.297
 117740276.993 5  22108605.424        2107.288          11.227
 108057261.900 7  20845342.361        5606.217          17.035
 97  2 28 18 55  1.8340359  0  9G31G27G19G 7G18G 2G 3G10G15
  91076172.062 8  17409334.185        1242.937          20.660
  96330506.913 9  18239013.225        5507.227          23.867
  88437506.507 9  16776825.766        3541.606          27.508
 114929474.614 4  21525569.850        6503.889           9.852
  92140025.036 9  17797934.465         428.534          24.340
 107013380.917 7  20019144.361        4723.394          20.039
 106743402.435 7  20374159.349        -211.491          18.266
 117738171.332 5  22108204.751        2103.681          11.348
 108051657.694 7  20844275.927        5602.655          17.086
 97  2 28 18 55  2.8340420  0  9G31G27G19G 7G18G 2G 3G10G15
  91074931.201 8  17409098.053        1239.167          20.578
  96325001.614 9  18237965.608        5503.474          23.652
  88433966.791 9  16776152.181        3537.657          27.441
 114922972.328 4  21524332.494        6500.638           9.645
  92139598.430 9  17797853.285         424.810          24.063
 107008659.413 7  20018245.893        4719.975          19.844
 106743615.741 7  20374199.942        -215.255          18.281
 117736069.470 5  22107804.804        2099.831          11.547
 108046056.926 7  20843210.147        5599.235          17.266
 97  2 28 18 55  3.8340477  0  9G31G27G19G 7G18G 2G 3G10G15
  91073694.171 8  17408862.651        1235.251          20.723
  96319499.674 9  18236918.629        5500.446          23.383
  88430430.625 9  16775479.274        3534.260          27.516
 114916473.331 4  21523095.779        6497.334           9.527
  92139175.517 9  17797772.805         421.114          23.957
 107003941.326 8  20017348.080        4716.597          20.328
 106743832.538 7  20374241.201        -218.366          18.586
 117733971.273 5  22107405.546        2096.366          10.852
 108040459.354 7  20842144.976        5596.000          17.426
 97  2 28 18 55  4.8340535  0  9G31G27G19G 7G18G 2G 3G10G15
  91072460.883 8  17408627.960        1231.206          20.719
  96314001.053 8  18235872.283        5496.990          23.363
  88426898.067 9  16774807.053        3530.983          27.152
 114909977.526 4  21521859.665        6494.586           9.090
  92138756.236 9  17797693.017         417.655          23.875
 106999226.566 8  20016450.902        4712.919          20.648
 106744052.751 7  20374283.109        -221.567          18.406
 117731876.617 4  22107006.956        2092.698          10.379
 108034864.992 7  20841080.417        5592.848          17.566
 97  2 28 18 55  5.8340592  0  9G31G27G19G 7G18G 2G 3G10G15
  91071231.312 8  17408393.978        1227.478          20.789
  96308505.711 8  18234826.561        5493.473          23.246
  88423369.022 9  16774135.500        3527.681          27.223
 114903484.903 4  21520624.156        6490.871           9.141
  92138340.523 9  17797613.909         413.966          24.195
 106994515.075 8  20015554.346        4709.949          20.879
 106744276.261 7  20374325.644        -225.341          18.547
 117729785.490 4  22106609.029        2088.868          10.223
 108029273.747 7  20840016.450        5589.567          17.219
 97  2 28 18 55  6.8340649  0  9G31G27G19G 7G18G 2G 3G10G15
  91070005.615 8  17408160.734        1223.937          20.965
  96303013.809 8  18233781.495        5490.165          22.797
  88419843.686 9  16773464.652        3522.736          26.680
 114896995.638 4  21519389.265        6487.222           8.703
  92137928.568 9  17797535.518         409.574          24.164
 106989807.086 8  20014658.457        4706.000          21.172
 106744503.415 7  20374368.876        -228.720          18.621
 117727698.167 4  22106211.817        2084.977           9.910
 108023685.808 7  20838953.115        5586.991          17.324
 97  2 28 18 55  7.8340706  0  9G31G27G19G 7G18G 2G 3G10G15
  91068783.982 8  17407928.265        1219.247          21.363
  96297525.523 8  18232737.114        5486.618          22.805
  88416322.165 9  16772794.528        3518.837          26.516
 114890509.918 4  21518155.058        6483.640           8.672
  92137520.608 9  17797457.889         405.946          24.285
 106985102.753 8  20013763.266        4702.708          20.977
 106744734.244 7  20374412.805        -232.884          18.602
 117725614.725 4  22105815.342        2081.693           9.391
 108018101.402 7  20837890.445        5582.331          17.277
 97  2 28 18 55  8.8340764  0  9G31G27G19G 7G18G 2G 3G10G15
  91067566.380 8  17407696.564        1215.727          21.414
  96292040.777 8  18231693.405        5482.965          22.355
  88412804.498 9  16772125.136        3516.063          26.410
 114884027.620 4  21516921.483        6480.900           8.473
  92137116.503 9  17797380.996         402.330          24.238
 106980401.993 8  20012868.753        4699.053          20.891
 106744968.714 7  20374457.428        -235.834          18.625
 117723535.097 4  22105419.592        2077.433           8.758
 108012520.390 7  20836828.420        5579.246          17.566
 97  2 28 18 55  9.8340821  0  9G31G27G19G 7G18G 2G 3G10G15
  91066352.602 8  17407465.590        1212.185          21.512
  96286559.455 8  18230650.347        5480.025          22.332
  88409290.423 9  16771456.425        3512.729          26.141
 114877548.589 4  21515688.533        6477.574           8.098
  92136716.063 9  17797304.801         398.899          24.332
 106975704.640 8  20011974.887        4695.775          20.762
 106745206.708 7  20374502.723        -239.345          18.633
 117721459.157 4  22105024.543        2073.879           8.055
 108006942.611 7  20835767.006        5575.726          17.773
 97  2 28 18 55 10.8340878  0  9G31G27G19G 7G18G 2G 3G10G15
  91065142.469 8  17407235.311        1208.517          21.262
  96281081.269 8  18229607.891        5476.435          22.598
  88405779.844 9  16770788.383        3508.756          25.875
 114871072.675 4  21514456.168        6474.461           7.801
  92136319.147 9  17797229.276         395.134          24.164
 106971010.516 8  20011081.634        4692.531          20.457
 106745447.979 7  20374548.642        -243.160          18.578
 117719386.650 3  22104630.150        2070.919           7.426
 108001367.905 7  20834706.176        5573.162          17.945
 97  2 28 18 55 11.8340936  0  9G31G27G19G 7G18G 2G 3G10G15
  91063936.136 8  17407005.754        1204.314          21.129
  96275606.433 8  18228566.069        5473.170          22.277
  88402272.799 9  16770121.014        3505.288          26.137
 114864599.969 4  21513224.419        6471.158           7.727
  92135925.859 9  17797154.442         391.863          24.000
 106966319.765 7  20010189.022        4688.707          20.008
 106745692.680 7  20374595.212        -247.141          18.492
 117717317.803 3  22104236.453        2066.949           7.363
 107995796.417 7  20833645.957        5569.577          17.949
 97  2 28 18 55 12.8340993  0  9G31G27G19G 7G18G 2G 3G10G15
  91062734.077 8  17406777.009        1199.670          21.242
  96270135.418 8  18227524.972        5468.715          22.020
  88398769.823 9  16769454.421        3500.175          26.148
 114858131.004 3  21511993.379        6467.031           7.406
  92135536.684 9  17797080.390         386.786          23.949
 106961632.869 7  20009297.141        4684.704          19.910
 106745941.300 7  20374642.531        -251.250          18.262
 117715252.979 4  22103843.522        2062.367           7.516
 107990228.611 7  20832586.437        5565.833          18.063
 97  2 28 18 55 13.8341050  0  9G31G27G19G 7G18G 2G 3G10G15
  91061536.912 8  17406549.195        1194.565          20.816
  96264668.863 8  18226484.727        5464.203          21.789
  88395271.564 9  16768788.728        3495.783          25.980
 114851666.370 3  21510763.171        6462.231           7.063
  92135152.306 9  17797007.250         382.029          23.945
 106956950.452 7  20008406.111        4679.810          20.113
 106746194.481 7  20374690.720        -255.979          18.297
 117713192.868 3  22103451.490        2057.174           7.488
 107984665.101 7  20831527.733        5561.801          18.020
 97  2 28 18 55 14.8341108  0  9G31G27G19G 7G18G 2G 3G10G15
  91060345.501 8  17406322.476        1188.322          20.465
  96259207.614 8  18225445.493        5458.305          21.758
  88391778.809 9  16768124.083        3489.948          26.070
 114845206.922 3  21509533.949        6456.986           6.703
  92134773.517 9  17796935.172         376.196          23.648
 106952273.359 8  20007516.092        4674.248          20.160
 106746453.052 7  20374739.932        -261.767          18.402
 117711138.378 3  22103060.523        2051.787           6.789
 107979106.772 7  20830470.012        5555.898          17.934
 97  2 28 18 55 15.8341165  0  9G31G27G19G 7G18G 2G 3G10G15
  91059160.564 8  17406096.989        1181.830          20.832
  96253752.343 8  18224407.395        5451.966          21.328
  88388292.338 9  16767460.630        3483.423          25.590
 114838753.413 3  21508305.855        6450.363           6.758
  92134401.038 9  17796864.293         369.220          23.410
 106947602.344 8  20006627.233        4667.915          20.613
 106746717.730 7  20374790.305        -267.978          18.098
 117709090.172 3  22102670.749        2045.012           6.355
 107973554.307 7  20829413.409        5549.322          18.094
 97  2 28 18 55 16.8341222  0  9G31G27G19G 7G18G 2G 3G10G15
  91057982.623 8  17405872.833        1174.292          21.055
  96248303.699 8  18223370.557        5445.268          21.234
  88384812.707 9  16766798.477        3476.052          25.652
 114832306.273 3  21507078.965        6443.371           6.457
  92134035.432 8  17796794.720         361.946          23.133
 106942937.913 8  20005739.629        4660.810          21.000
 106746989.060 7  20374841.945        -275.087          18.215
 117707048.788 3  22102282.272        2037.253           6.512
 107968008.269 7  20828358.025        5542.483          17.418
 97  2 28 18 55 17.8341280  0  9G31G27G19G 7G18G 2G 3G10G15
  91056812.249 8  17405650.120        1166.635          21.176
  96242862.085 8  18222335.058        5438.205          21.125
  88381340.367 9  16766137.711        3468.632          25.547
 114825866.169 3  21505853.431        6437.009           6.094
  92133677.238 8  17796726.557         354.345          23.230
 106938280.634 8  20004853.388        4653.834          21.156
 106747267.604 7  20374894.957        -281.865          17.961
 117705014.813 3  22101895.207        2030.361           6.605
 107962469.209 7  20827303.971        5535.299          17.012
 97  2 28 18 55 18.8341337  0  9G31G27G19G 7G18G 2G 3G10G15
  91055649.808 8  17405428.917        1158.376          21.582
  96237427.955 8  18221300.981        5430.020          20.777
  88377875.819 9  16765478.427        3460.738          25.512
 114819433.487 3  21504629.310        6429.283           5.543
  92133326.833 8  17796659.877         346.242          22.871
 106933630.889 8  20003968.586        4645.675          21.484
 106747553.750 7  20374949.415        -290.112          17.891
 117702988.523 3  22101509.604        2021.978           6.367
 107956937.497 7  20826251.315        5527.724          16.988
 97  2 28 18 55 19.8341394  0  9G31G27G19G 7G18G 2G 3G10G15
  91054495.527 8  17405209.266        1150.235          21.941
  96232001.608 8  18220268.390        5422.418          20.828
  88374419.271 9  16764820.666        3452.575          25.613
 114813008.379 3  21503406.629        6421.999           5.586
  92132984.531 8  17796594.739         338.362          22.734
 106928988.934 8  20003085.271        4637.843          21.887
 106747847.739 7  20375005.366        -297.868          17.777
 117700970.342 3  22101125.549        2013.775           6.363
 107951413.403 6  20825200.109        5520.015          16.684
 97  2 28 18 55 20.8341451  0  9G31G27G19G 7G18G 2G 3G10G15
  91053349.639 8  17404991.215        1141.836          22.113
  96226583.130 8  18219237.296        5414.374          20.766
  88370970.849 9  16764164.455        3443.837          25.570
 114806591.043 3  21502185.431        6413.106           5.141
  92132650.420 8  17796531.157         330.395          23.059
 106924354.906 8  20002203.465        4630.084          22.051
 106748149.742 7  20375062.841        -305.889          17.480
 117698960.205 3  22100743.023        2006.143           6.453
 107945897.097 6  20824150.390        5513.222          16.840
 97  2 28 18 55 21.8341508  0  9G31G27G19G 7G18G 2G 3G10G15
  91052211.883 8  17404774.711        1133.897          22.227
  96221172.361 8  18218207.671        5406.984          20.816
  88367530.376 9  16763509.756        3436.479          25.570
 114800181.397 3  21500965.698        6406.109           5.090
  92132324.335 8  17796469.103         322.184          22.934
 106919728.674 8  20001323.143        4622.702          21.992
 106748459.548 7  20375121.800        -313.238          17.383
 117696958.132 3  22100362.033        1997.927           6.473
 107940388.383 7  20823102.111        5505.790          17.094
 97  2 28 18 55 22.8341566  0  9G31G27G19G 7G18G 2G 3G10G15
  91051081.831 8  17404559.673        1126.732          22.383
  96215768.786 8  18217179.414        5400.363          21.086
  88364097.364 9  16762856.474        3429.470          25.449
 114793778.831 3  21499744.059        6399.713           4.930
  92132005.791 8  17796408.483         314.777          22.934
 106915109.638 8  20000444.192        4615.437          22.238
 106748776.653 7  20375182.148        -320.844          17.168
 117694963.584 3  22099982.475        1990.635           6.078
 107934886.748 7  20822055.183        5498.881          17.480
 97  2 28 18 55 23.8341623  0  9G31G27G19G 7G18G 2G 3G10G15
  91049958.896 8  17404345.988        1119.617          21.969
  96210371.869 8  18216152.422        5393.870          21.090
  88360671.275 9  16762204.509        3422.673          25.020
 114787382.798 3  21498520.927        6393.256           5.039
  92131694.259 8  17796349.198         307.993          22.891
 106910497.352 8  19999566.526        4609.047          22.285
 106749100.579 7  20375243.796        -327.406          17.242
 117692975.938 3  22099604.228        1984.343           6.234
 107929391.668 7  20821009.505        5492.633          17.500
 97  2 28 18 55 24.8341680  0  9G31G27G19G 7G18G 2G 3G10G15
  91048842.794 8  17404133.602        1113.020          21.488
  96204981.337 8  18215126.645        5387.272          21.340
  88357251.820 9  16761553.803        3415.480          24.828
 114780993.107 3  21497302.954        6386.998           4.828
  92131389.437 8  17796291.192         301.288          22.902
 106905891.481 8  19998690.077        4602.787          21.801
 106749431.018 7  20375306.683        -333.531          16.996
 117690994.964 3  22099227.250        1977.677           5.961
 107923902.830 7  20819965.020        5485.836          17.730
 97  2 28 18 55 25.8341737  0  9G31G27G19G 7G18G 2G 3G10G15
  91047733.507 8  17403922.512        1106.172          20.906
  96199597.116 8  18214102.073        5381.360          20.984
  88353838.982 9  16760904.357        3409.510          24.758
 114774609.616 3  21496085.811        6380.375           4.520
  92131091.255 8  17796234.448         294.971          22.852
 106901291.995 8  19997814.841        4596.310          21.777
 106749767.856 6  20375370.785        -339.963          16.566
 117689020.584 3  22098851.528        1971.093           5.230
 107918420.212 7  20818921.719        5479.457          17.789
 97  2 28 18 55 26.8341795  0  9G31G27G19G 7G18G 2G 3G10G15
  91046631.027 8  17403712.717        1099.089          20.305
  96194219.215 8  18213078.702        5374.813          21.055
  88350432.704 9  16760256.156        3402.963          24.516
 114768232.335 3  21494872.117        6373.682           4.855
  92130799.703 8  17796178.967         287.955          22.574
 106896698.876 8  19996940.815        4589.522          21.945
 106750111.157 6  20375436.118        -346.287          16.582
 117687052.856 3  22098477.074        1965.104           5.113
 107912943.836 7  20817879.610        5473.014          18.145
 97  2 28 18 55 27.8341852  0  9G31G27G19G 7G18G 2G 3G10G15
  91045535.422 7  17403504.229        1092.559          19.961
  96188847.727 8  18212056.551        5368.400          20.828
  88347033.146 9  16759609.234        3396.097          24.730
 114761861.458 3  21493659.404        6368.202           5.133
  92130514.949 8  17796124.779         281.318          22.547
 106892112.277 8  19996068.026        4583.528          21.391
 106750461.037 6  20375502.702        -353.239          16.293
 117685091.822 3  22098103.894        1957.305           5.137
 107907473.757 7  20816838.705        5466.726          18.664
 97  2 28 18 55 28.8341909  0  9G31G27G19G 7G18G 2G 3G10G15
  91044446.680 7  17403297.047        1085.551          19.336
  96183482.679 8  18211035.625        5362.132          20.324
  88343640.228 9  16758963.577        3389.957          24.602
 114755496.938 3  21492448.136        6361.627           4.770
  92130236.875 8  17796071.861         274.801          22.641
 106887532.111 8  19995196.456        4577.114          21.352
 106750817.459 6  20375570.532        -359.905          16.223
 117683137.434 3  22097731.980        1951.354           4.855
 107902009.948 7  20815798.991        5460.886          18.879
 97  2 28 18 55 29.8341967  0  9G31G27G19G 7G18G 2G 3G10G15
  91043364.540 7  17403091.121        1079.099          19.355
  96178123.684 8  18210015.850        5355.891          20.266
  88340253.729 9  16758319.142        3383.617          24.852
 114749138.366 3  21491237.092        6355.999           5.156
  92129965.256 8  17796020.171         268.882          22.617
 106882958.085 8  19994326.055        4570.997          21.426
 106751180.053 6  20375639.536        -365.622          16.117
 117681189.519 3  22097361.298        1945.056           5.141
 107896552.190 7  20814760.429        5454.882          18.914
 97  2 28 18 55 30.8342024  0  9G31G27G19G 7G18G 2G 3G10G15
  91042288.471 7  17402886.350        1073.280          19.324
  96172770.373 7  18208997.155        5350.770          19.777
  88336873.117 9  16757675.830        3377.705          25.051
 114742785.441 3  21490023.673        6350.767           5.297
  92129699.631 8  17795969.620         262.884          22.504
 106878389.815 8  19993456.751        4565.792          21.828
 106751548.447 6  20375709.642        -371.138          15.742
 117679247.489 3  22096991.735        1938.807           5.613
 107891099.949 7  20813722.917        5449.371          18.855
 97  2 28 18 55 31.8342078  0  9G31G27G19G 7G18G 2G 3G10G15
  91041218.090 7  17402682.661        1067.658          19.527
  96167422.215 7  18207979.440        5345.780          19.410
  88333497.969 9  16757033.557        3372.368          25.082
 114736437.528 3  21488812.843        6345.476           5.887
  92129439.562 8  17795920.127         257.335          22.527
 106873826.763 8  19992588.441        4560.576          22.164
 106751922.177 6  20375780.764        -376.165          15.984
 117677311.006 3  22096623.229        1934.201           5.215
 107885652.751 7  20812686.363        5445.301          18.570
 97  2 28 18 55 32.8342138  0  9G31G27G19G 7G18G 2G 3G10G15
  91040152.993 7  17402479.980        1062.724          19.715
  96162078.904 7  18206962.645        5340.894          19.059
  88330127.984 9  16756392.267        3367.490          25.223
 114730094.436 3  21487606.432        6340.643           6.051
  92129184.634 8  17795871.613         252.339          22.547
 106869268.633 8  19991721.068        4555.645          22.293
 106752300.880 6  20375852.831        -380.995          15.594
 117675379.634 3  22096255.694        1929.273           4.844
 107880210.335 7  20811650.719        5439.945          18.504
 97  2 28 18 55 33.8342195  0  9G31G27G19G 7G18G 2G 3G10G15
  91039093.056 8  17402278.280        1057.507          20.273
  96156740.266 7  18205946.736        5336.453          18.320
  88326762.955 9  16755751.921        3362.629          25.406
 114723755.902 3  21486401.646        6336.106           5.703
  92128934.752 8  17795824.057         247.603          22.488
 106864715.277 8  19990854.606        4551.169          21.840
 106752684.460 6  20375925.829        -385.990          15.469
 117673453.318 3  22095889.121        1923.517           5.113
 107874772.517 7  20810615.948        5435.537          18.453
 97  2 28 18 55 34.8342253  0  9G31G27G19G 7G18G 2G 3G10G15
  91038038.049 8  17402077.519        1052.425          20.645
  96151406.142 7  18204931.687        5332.146          18.660
  88323402.663 9  16755112.478        3357.228          25.836
 114717421.781 3  21485195.591        6331.114           5.320
  92128689.677 8  17795777.419         242.952          22.789
 106860166.427 8  19989989.000        4546.389          22.070
 106753072.550 6  20375999.681        -389.818          15.051
 117671531.686 3  22095523.439        1919.682           4.949
 107869339.059 7  20809582.005        5432.010          18.496
 97  2 28 18 55 35.8342310  0  9G31G27G19G 7G18G 2G 3G10G15
  91036987.856 8  17401877.675        1047.765          21.344
  96146076.331 7  18203917.459        5327.386          18.277
  88320046.994 9  16754473.915        3353.583          25.840
 114711091.956 3  21483991.302        6327.554           5.438
  92128449.305 8  17795731.675         237.942          23.051
 106855622.031 8  19989124.244        4542.183          22.293
 106753465.203 6  20376074.401        -394.825          14.652
 117669614.782 3  22095158.657        1914.818           4.535
 107863909.830 7  20808548.862        5426.878          18.633
 97  2 28 18 55 36.8342367  0  9G31G27G19G 7G18G 2G 3G10G15
  91035942.578 8  17401678.767        1042.817          21.496
  96140750.959 7  18202904.074        5322.882          18.395
  88316696.112 9  16753836.267        3348.602          26.039
 114704766.476 3  21482788.095        6323.463           5.738
  92128213.729 8  17795686.845         233.410          23.078
 106851082.140 8  19988260.348        4537.707          22.641
 106753862.440 6  20376149.994        -399.429          14.414
 117667702.645 2  22094794.781        1909.329           3.895
 107858484.959 7  20807516.546        5422.628          18.973
 97  2 28 18 55 37.8342424  0  9G31G27G19G 7G18G 2G 3G10G15
  91034902.288 8  17401480.808        1037.572          21.805
  96135430.140 7  18201891.556        5318.469          18.273
  88313349.964 9  16753199.521        3344.018          26.141
 114698445.443 3  21481585.887        6318.732           5.992
  92127982.941 8  17795642.927         228.204          23.117
 106846546.798 8  19987397.321        4532.966          23.363
 106754264.286 6  20376226.463        -404.564          14.090
 117665795.249 2  22094431.808        1905.710           4.160
 107853064.450 7  20806485.059        5418.550          18.996
 97  2 28 18 55 38.8342482  0  9G31G27G19G 7G18G 2G 3G10G15
  91033866.896 8  17401283.781        1032.944          21.664
  96130113.754 7  18200879.884        5314.083          18.340
  88310008.624 9  16752563.689        3339.266          26.371
 114692128.783 3  21480383.970        6314.647           5.879
  92127756.962 8  17795599.927         223.760          23.141
 106842015.980 9  19986535.160        4528.597          23.695
 106754670.756 6  20376303.814        -408.751          13.844
 117663892.672 2  22094069.750        1900.372           4.309
 107847648.345 7  20805454.410        5413.835          18.590
 97  2 28 18 55 39.8342539  0  9G31G27G19G 7G18G 2G 3G10G15
  91032836.491 8  17401087.703        1027.926          21.543
  96124801.837 7  18199869.058        5309.424          18.422
  88306671.992 9  16751928.755        3334.370          26.398
 114685816.475 3  21479182.270        6310.164           5.738
  92127535.798 8  17795557.844         218.767          23.309
 106837489.669 9  19985673.859        4523.991          23.996
 106755081.822 6  20376382.040        -413.291          13.707
 117661995.003 3  22093708.625        1895.259           4.801
 107842236.631 7  20804424.594        5409.279          18.637
 97  2 28 18 55 40.8342596  0  9G31G27G19G 7G18G 2G 3G10G15
  91031811.235 8  17400892.603        1022.474          21.121
  96119494.650 7  18198859.131        5304.708          17.852
  88303340.377 9  16751294.773        3329.454          26.383
 114679508.917 3  21477981.762        6305.229           6.070
  92127319.678 8  17795516.721         213.990          23.234
 106832968.157 9  19984813.469        4518.873          23.895
 106755497.769 5  20376461.193        -418.596          13.441
 117660102.332 3  22093348.449        1889.437           5.277
 107836829.445 7  20803395.639        5405.185          18.879
 97  2 28 18 55 41.8342653  0  9G31G27G19G 7G18G 2G 3G10G15
  91030791.548 8  17400698.562        1017.114          20.816
  96114192.609 7  18197850.182        5299.611          17.879
  88300014.166 9  16750661.818        3324.046          26.055
 114673206.334 3  21476782.146        6300.005           6.074
  92127109.000 8  17795476.632         207.990          23.012
 106828451.796 9  19983954.060        4513.714          24.109
 106755918.958 5  20376541.344        -424.266          13.223
 117658215.060 3  22092971.999        1883.792           5.078
 107831427.340 7  20802367.650        5399.535          19.211
 97  2 28 18 55 42.8342711  0  9G31G27G19G 7G18G 2G 3G10G15
  91029777.729 8  17400505.638        1010.953          20.547
  96108895.909 7  18196842.249        5294.014          17.625
  88296693.599 9  16750029.935        3317.705          26.328
 114666909.054 3  21475583.407        6294.980           6.445
  92126904.028 8  17795437.630         202.170          22.895
 106823940.870 9  19983095.684        4508.231          24.379
 106756345.670 5  20376622.545        -429.245          12.922
 117656333.504 2  22092603.349        1878.316           4.340
 107826030.493 7  20801340.661        5394.393          19.031
 97  2 28 18 55 43.8342767  0  9G31G27G19G 7G18G 2G 3G10G15
  91028769.695 8  17400313.815        1005.094          20.414
  96103604.595 7  18195835.342        5288.792          16.945
  88293378.686 9  16749399.126        3312.378          26.121
 114660617.040 3  21474385.954        6289.829           6.359
  92126704.700 8  17795399.702         196.472          22.813
 106819435.319 9  19982238.329        4502.889          24.281
 106756777.861 5  20376704.789        -435.109          12.887
 117654457.603 2  22092236.300        1872.537           3.887
 107820638.867 7  20800314.667        5388.922          19.410
 97  2 28 18 55 44.8342825  0  9G31G27G19G 7G18G 2G 3G10G15
  91027767.182 8  17400123.043         999.961          20.340
  96098318.380 6  18194829.406        5283.884          16.422
  88290069.083 9  16748769.327        3307.012          26.168
 114654330.007 3  21473189.242        6284.611           6.777
  92126510.752 8  17795362.799         191.582          22.750
 106814934.855 9  19981381.941        4497.929          24.551
 106757215.243 5  20376788.021        -439.722          12.703
 117652587.016 2  22091871.444        1868.044           3.090
 107815252.223 7  20799289.621        5384.479          19.707
 97  2 28 18 55 45.8342882  0  9G31G27G19G 7G18G 2G 3G10G15
  91026769.832 8  17399933.254         994.930          20.176
  96093036.799 6  18193824.350        5279.226          15.941
  88286764.476 9  16748140.479        3302.072          26.266
 114648047.626 3  21471993.657        6279.947           7.141
  92126321.836 8  17795326.855         186.374          22.918
 106810439.185 9  19980526.461        4493.539          24.324
 106757657.504 5  20376872.181        -444.505          12.508
 117650721.738 2  22091509.314        1864.091           3.313
 107809870.167 7  20798265.449        5379.568          19.277
 97  2 28 18 55 46.8342940  0  9G31G27G19G 7G18G 2G 3G10G15
  91025777.538 8  17399744.426         989.955          20.137
  96087759.881 6  18192820.182        5274.475          15.676
  88283464.772 9  16747512.563        3297.334          26.305
 114641769.733 3  21470798.714        6275.211           7.414
  92126137.842 8  17795291.847         181.629          22.645
 106805948.172 9  19979671.867        4488.547          24.313
 106758104.499 5  20376957.242        -449.248          12.277
 117648860.985 2  22091153.151        1858.268           3.898
 107804492.601 7  20797242.130        5374.785          18.949
 97  2 28 18 55 47.8342997  0  9G31G27G19G 7G18G 2G 3G10G15
  91024790.234 8  17399556.548         984.567          20.305
  96082487.539 6  18191816.885        5270.186          15.398
  88280169.812 9  16746885.554        3292.178          26.766
 114635496.325 3  21469604.954        6270.964           7.434
  92125958.728 8  17795257.768         176.440          22.438
 106801461.753 9  19978818.143        4484.302          24.043
 106758556.171 5  20377043.194        -453.742          12.398
 117647005.507 2  22090808.999        1853.559           4.367
 107799119.481 7  20796219.652        5370.742          18.539
 97  2 28 18 55 48.8343054  0  9G31G27G19G 7G18G 2G 3G10G15
  91023807.921 8  17399369.620         979.826          20.418
  96077219.635 6  18190814.431        5265.813          14.707
  88276879.694 9  16746259.466        3288.234          26.801
 114629227.316 4  21468412.212        6266.476           7.523
  92125784.438 8  17795224.606         172.204          22.055
 106796979.877 9  19977965.281        4479.568          24.340
 106759012.508 5  20377130.034        -458.481          12.445
 117645154.468 3  22090462.658        1848.533           4.953
 107793750.777 7  20795198.015        5366.391          18.668
 97  2 28 18 55 49.8343111  0  9G31G27G19G 7G18G 2G 3G10G15
  91022830.189 8  17399183.562         975.460          20.301
  96071955.955 6  18189812.783        5261.574          14.629
  88273593.971 9  16745634.215        3283.420          26.738
 114622962.403 4  21467219.691        6262.717           7.566
  92125614.589 8  17795192.288         167.541          21.672
 106792502.208 9  19977113.221        4475.735          24.188
 106759473.126 5  20377217.687        -463.148          12.207
 117643308.158 3  22090115.857        1844.159           5.988
 107788386.037 7  20794177.132        5362.657          18.133
 97  2 28 18 55 50.8343169  0  9G31G27G19G 7G18G 2G 3G10G15
  91021856.889 8  17398998.348         971.293          20.750
  96066696.215 6  18188811.885        5257.760          14.762
  88270312.445 9  16745009.762        3279.664          26.871
 114616701.337 4  21466027.561        6259.325           7.727
  92125449.026 8  17795160.786         163.389          21.695
 106788028.570 9  19976261.928        4471.627          24.145
 106759937.863 5  20377306.124        -466.418          12.438
 117641466.102 3  22089768.447        1840.575           5.965
 107783025.244 7  20793156.998        5358.433          18.086
 97  2 28 18 55 51.8343226  0  9G31G27G19G 7G18G 2G 3G10G15
  91020888.128 8  17398813.998         966.184          20.684
  96061440.611 6  18187811.775        5253.577          14.852
  88267035.371 9  16744386.155        3274.773          26.398
 114610444.324 4  21464836.969        6254.974           7.781
  92125287.885 8  17795130.125         158.685          21.637
 106783559.064 9  19975411.416        4467.267          23.879
 106760406.887 5  20377395.377        -471.312          12.156
 117639628.433 3  22089419.166        1835.107           6.012
 107777668.380 7  20792137.610        5354.734          18.230
 97  2 28 18 55 52.8343283  0  9G31G27G19G 7G18G 2G 3G10G15
  91019924.728 8  17398630.669         960.572          21.039
  96056189.923 6  18186812.601        5248.094          15.180
  88263763.439 9  16743763.527        3269.412          26.512
 114604192.162 4  21463646.956        6249.020           7.590
  92125131.974 8  17795100.459         152.990          21.555
 106779094.514 9  19974561.850        4461.893          23.688
 106760880.920 5  20377485.583        -476.866          11.922
 117637796.024 3  22089068.542        1829.701           6.000
 107772316.378 7  20791119.148        5349.235          18.133
 97  2 28 18 55 53.8343340  0  9G31G27G19G 7G18G 2G 3G10G15
  91018967.444 8  17398448.505         953.932          21.289
  96050944.935 6  18185814.514        5242.017          15.309
  88260497.421 9  16743142.023        3263.194          26.461
 114597945.521 4  21462457.850        6243.247           7.559
  92124982.046 8  17795071.932         147.246          21.617
 106774635.678 9  19973713.371        4455.957          23.730
 106761360.786 5  20377576.898        -483.106          11.730
 117635969.607 3  22088720.180        1822.984           6.305
 107766969.888 7  20790101.734        5343.418          18.152
 97  2 28 18 55 54.8343398  0  9G31G27G19G 7G18G 2G 3G10G15
  91018016.993 8  17398267.641         947.107          21.223
  96045706.285 6  18184817.633        5235.380          15.352
  88257238.066 9  16742521.787        3255.859          26.074
 114591705.182 4  21461270.130        6237.094           7.551
  92124838.816 8  17795044.678         139.803          21.313
 106770183.269 9  19972866.118        4449.076          23.715
 106761847.167 5  20377669.452        -489.781          11.816
 117634149.922 3  22088372.402        1816.086           6.316
 107761629.694 7  20789085.518        5336.828          18.250
 97  2 28 18 55 55.8343455  0  9G31G27G19G 7G18G 2G 3G10G15
  91017073.911 8  17398088.180         939.457          21.137
  96040474.532 6  18183822.064        5228.476          15.414
  88253985.914 9  16741902.924        3248.411          26.047
 114585471.642 4  21460083.771        6229.892           7.730
  92124702.808 8  17795018.797         132.091          21.219
 106765737.777 9  19972020.184        4442.048          24.379
 106762340.598 5  20377763.348        -497.440          11.949
 117632337.437 3  22088027.049        1809.392           7.418
 107756296.285 7  20788070.596        5330.114          18.531
 97  2 28 18 55 56.8343512  0  9G31G27G19G 7G18G 2G 3G10G15
  91016138.683 8  17397910.213         931.206          20.945
  96035250.193 6  18182827.905        5220.567          15.395
  88250741.435 9  16741285.521        3240.392          25.938
 114579245.450 4  21458898.988        6222.532           7.738
  92124574.494 8  17794994.381         124.307          21.078
 106761299.734 9  19971175.673        4433.978          24.922
 106762841.527 5  20377858.671        -505.015          12.035
 117630532.687 3  22087684.141        1800.746           7.211
 107750970.150 7  20787057.058        5322.507          18.090
 97  2 28 18 55 57.8343569  0  9G31G27G19G 7G18G 2G 3G10G15
  91015211.671 8  17397733.808         922.804          21.121
  96030033.613 6  18181835.225        5212.812          15.422
  88247504.916 9  16740669.634        3232.834          25.672
 114573026.886 4  21457715.312        6214.694           7.504
  92124454.252 8  17794971.501         116.465          21.172
 106756869.504 9  19970332.648        4426.408          25.109
 106763350.379 5  20377955.501        -512.817          12.152
 117628735.963 4  22087343.348        1792.431           7.613
 107745651.676 7  20786044.980        5315.053          18.191
 97  2 28 18 55 58.8343627  0  9G31G27G19G 7G18G 2G 3G10G15
  91014292.682 8  17397558.931         915.434          21.152
  96024824.605 6  18180843.984        5205.323          15.227
  88244276.281 9  16740055.248        3225.365          25.438
 114566815.822 3  21456533.303        6207.724           7.188
  92124341.929 8  17794950.127         108.872          21.086
 106752446.852 9  19969491.066        4418.980          25.121
 106763866.874 5  20378053.787        -519.965          12.367
 117626947.176 4  22087004.367        1785.232           7.836
 107740340.646 7  20785034.318        5307.567          17.895
 97  2 28 18 55 59.8343684  0  9G31G27G19G 7G18G 2G 3G10G15
  91013380.966 8  17397385.437         908.322          21.512
  96019622.432 6  18179854.043        5199.117          15.105
  88241054.735 9  16739442.210        3218.209          25.609
 114560611.464 3  21455352.516        6201.577           7.105
  92124236.741 8  17794930.110         101.975          20.824
 106748031.069 9  19968650.789        4412.496          25.313
 106764390.351 5  20378153.399        -527.026          12.391
 117625165.473 3  22086666.210        1778.697           7.473
 107735036.367 7  20784024.947        5301.426          18.063
 97  2 28 18 56  0.8343741  0  9G31G27G19G 7G18G 2G 3G10G15
  91012476.027 8  17397213.233         901.702          21.688
  96014426.528 6  18178865.295        5193.113          14.973
  88237839.743 9  16738830.419        3212.340          25.188
 114554413.296 3  21454172.852        6194.952           7.082
  92124138.138 8  17794911.346          95.593          20.957
 106743621.580 9  19967811.710        4406.270          25.137
 106764920.202 5  20378254.226        -532.520          12.703
 117623390.416 3  22086328.733        1771.645           7.250
 107729738.182 7  20783016.735        5295.299          18.473
 97  2 28 18 56  2.8343856  0  9G31G27G19G 7G18G 2G 3G10G15
  91010684.816 8  17396872.375         889.471          21.977
  96004052.138 6  18176891.112        5181.412          14.523
  88231427.801 9  16737610.264        3200.260          24.883
 114542034.090 3  21451816.740        6184.109           6.867
  92123959.308 8  17794877.317          83.515          21.055
 106734820.130 9  19966136.878        4395.020          24.395
 106765997.691 5  20378459.264        -544.612          13.375
 117619858.597 3  22085658.081        1759.703           7.426
 107719158.956 7  20781003.586        5284.169          18.852
 97  2 28 18 56  3.8343913  0  9G31G27G19G 7G18G 2G 3G10G15
  91009798.106 8  17396703.638         883.990          22.047
  95998873.151 6  18175905.583        5176.610          14.383
  88228230.405 9  16737001.817        3194.728          24.875
 114535852.575 3  21450640.287        6178.777           6.914
  92123878.564 8  17794861.954          78.058          20.777
 106730427.673 9  19965301.029        4389.871          24.039
 106766544.841 6  20378563.383        -549.983          13.652
 117618101.361 3  22085324.451        1754.576           7.469
 107713877.399 7  20779998.548        5279.171          18.766
 97  2 28 18 56  4.8343970  0  9G31G27G19G 7G18G 2G 3G10G15
  91008916.850 8  17396535.939         878.755          22.078
  95993699.146 6  18174921.001        5171.899          14.480
  88225038.273 9  16736394.372        3189.873          24.891
 114529675.948 3  21449464.751        6174.689           6.621
  92123803.151 8  17794847.605          73.153          20.891
 106726040.215 9  19964466.132        4384.997          23.859
 106767097.066 6  20378668.468        -554.857          13.652
 117616349.444 4  22084991.628        1749.366           7.855
 107708600.682 7  20778994.434        5274.001          18.223
 97  2 28 18 56  5.8344027  0  9G31G27G19G 7G18G 2G 3G10G15
  91008040.998 8  17396369.268         872.814          21.820
  95988530.094 6  18173937.362        5166.516          14.207
  88221851.347 9  16735787.919        3184.701          25.066
 114523504.219 3  21448290.132        6169.425           6.566
  92123733.005 8  17794834.260          67.654          20.684
 106721657.748 9  19963632.184        4380.028          23.965
 106767654.372 6  20378774.519        -559.809          13.824
 117614602.734 4  22084660.309        1744.612           8.332
 107703328.814 7  20777991.243        5269.217          18.602
 97  2 28 18 56  6.8344085  0  9G31G27G19G 7G18G 2G 3G10G15
  91007170.909 8  17396203.694         867.020          21.785
  95983366.371 6  18172954.738        5160.780          14.160
  88218669.953 9  16735182.522        3178.608          25.523
 114517337.716 3  21447116.499        6163.485           6.551
  92123668.509 8  17794821.989          61.506          20.555
 106717280.675 9  19962799.265        4374.134          24.422
 106768217.129 6  20378881.607        -566.200          14.047
 117612861.619 4  22084329.794        1737.933           8.488
 107698062.171 7  20776989.047        5263.783          18.656
 97  2 28 18 56  7.8344142  0  9G31G27G19G 7G18G 2G 3G10G15
  91006307.206 8  17396039.335         860.397          21.645
  95978208.569 6  18171973.240        5154.928          13.883
  88215494.717 9  16734578.298        3171.577          25.730
 114511177.015 3  21445943.851        6157.685           6.145
  92123610.237 8  17794810.900          55.131          20.391
 106712909.541 9  19961967.475        4367.912          24.402
 106768785.887 6  20378989.836        -571.977          14.070
 117611126.816 4  22084000.377        1732.237           8.320
 107692801.320 7  20775987.953        5257.697          18.488
 97  2 28 18 56  8.8344199  0  9G31G27G19G 7G18G 2G 3G10G15
  91005450.034 8  17395876.219         854.019          21.676
  95973056.841 6  18170992.896        5148.719          13.898
  88212325.835 9  16733975.283        3165.759          25.781
 114505022.328 3  21444772.217        6151.528           6.289
  92123558.383 7  17794801.034          49.153          20.074
 106708544.526 9  19961136.852        4361.956          24.680
 106769360.886 6  20379099.252        -578.243          14.348
 117609398.342 4  22083672.225        1725.114           8.656
 107687546.461 7  20774988.001        5251.582          18.391
 97  2 28 18 56  9.8344256  0  9G31G27G19G 7G18G 2G 3G10G15
  91004599.276 8  17395714.324         847.706          21.371
  95967911.042 6  18170013.683        5142.817          13.852
  88209163.109 9  16733373.438        3159.817          25.551
 114498873.499 3  21443601.886        6145.797           6.137
  92123512.788 7  17794792.355          42.516          19.875
 106704185.573 9  19960307.380        4355.953          24.508
 106769941.932 6  20379209.820        -583.885          14.434
 117607676.177 4  22083345.655        1719.067           9.266
 107682297.422 7  20773989.155        5246.200          18.336
 97  2 28 18 56 10.8344314  0  9G31G27G19G 7G18G 2G 3G10G15
  91003754.848 8  17395553.635         841.464          21.398
  95962771.108 6  18169035.586        5137.136          13.980
  88206006.524 9  16732772.757        3153.881          25.141
 114492730.499 3  21442432.680        6140.168           6.055
  92123473.419 7  17794784.861          36.394          19.777
 106699832.468 9  19959479.025        4350.044          24.488
 106770528.998 6  20379321.532        -590.239          14.457
 117605960.152 4  22083019.925        1712.604           9.316
 107677054.138 7  20772991.401        5240.848          18.707
 97  2 28 18 56 11.8344371  0  9G31G27G19G 7G18G 2G 3G10G15
  91002916.629 8  17395394.127         835.444          21.637
  95957636.968 6  18168058.591        5131.207          14.238
  88202855.904 9  16732173.211        3147.650          25.168
 114486593.180 3  21441264.555        6134.490           5.754
  92123440.160 7  17794778.531          30.651          20.020
 106695485.169 9  19958651.775        4344.525          24.445
 106771121.853 6  20379434.346        -595.465          14.563
 117604250.247 4  22082695.291        1706.622           9.336
 107671816.488 7  20771994.717        5234.880          18.840
 97  2 28 18 56 12.8344428  0  9G31G27G19G 7G18G 2G 3G10G15
  91002084.471 8  17395235.773         829.288          21.684
  95952508.405 6  18167082.659        5125.848          14.336
  88199711.147 9  16731574.780        3141.739          25.090
 114480461.345 3  21440097.470        6129.518           5.984
  92123412.791 7  17794773.322          24.373          20.086
 106691143.511 9  19957825.601        4338.981          24.219
 106771720.470 6  20379548.258        -601.272          14.695
 117602546.178 4  22082371.275        1701.279           8.832
 107666584.367 7  20770999.079        5229.688          18.539
 97  2 28 18 56 13.8344485  0  9G31G27G19G 7G18G 2G 3G10G15
  91001258.223 8  17395078.545         823.388          21.512
  95947385.243 6  18166107.755        5120.707          14.629
  88196572.007 9  16730977.418        3136.522          25.234
 114474334.873 3  21438931.466        6123.981           5.844
  92123391.140 7  17794769.200          19.046          20.016
 106686807.294 9  19957000.463        4333.352          24.465
 106772324.606 6  20379663.219        -606.585          14.906
 117600847.781 4  22082048.329        1695.356           9.020
 107661357.511 7  20770004.437        5224.111          18.344
 97  2 28 18 56 14.8344542  0  9G31G27G19G 7G18G 2G 3G10G15
  91000437.496 8  17394922.366         818.055          21.637
  95942267.214 6  18165133.827        5115.708          14.809
  88193438.231 9  16730381.078        3131.347          25.305
 114468213.393 3  21437766.314        6118.519           5.723
  92123374.946 7  17794766.115          13.457          20.051
 106682476.242 9  19956176.308        4328.375          24.371
 106772933.944 6  20379779.171        -612.068          15.078
 117599154.845 4  22081727.055        1690.219           9.559
 107656135.687 7  20769010.751        5219.665          18.320
 97  2 28 18 56 15.8344600  0  9G31G27G19G 7G18G 2G 3G10G15
  90999621.983 8  17394767.179         812.968          22.031
  95937153.958 6  18164160.809        5111.417          14.613
  88190309.435 9  16729785.689        3126.492          25.637
 114462096.593 3  21436602.199        6114.943           5.523
  92123363.798 7  17794763.989           8.913          20.000
 106678149.924 9  19955353.056        4324.113          24.527
 106773548.152 6  20379896.050        -616.311          15.133
 117597466.967 4  22081406.654        1685.882          10.367
 107650918.472 7  20768017.944        5215.592          18.117
 97  2 28 18 56 16.8344657  0  9G31G27G19G 7G18G 2G 3G10G15
  90998811.374 8  17394612.926         808.003          22.137
  95932045.118 6  18163188.631        5106.626          14.973
  88187185.358 9  16729191.200        3121.630          26.184
 114455984.243 3  21435438.863        6109.838           5.449
  92123357.496 7  17794762.787           3.930          20.070
 106673828.163 9  19954530.669        4319.446          24.270
 106774166.961 6  20380013.804        -620.605          15.188
 117595783.836 5  22081087.621        1680.548          10.563
 107645705.634 7  20767025.963        5211.225          17.703
 97  2 28 18 56 17.8344714  0  9G31G27G19G 7G18G 2G 3G10G15
  90998005.541 8  17394459.581         803.742          22.465
  95926940.557 6  18162217.266        5102.434          14.582
  88184065.785 9  16728597.569        3117.283          25.949
 114449876.051 3  21434276.384        6106.435           5.426
  92123355.768 8  17794762.455          -0.612          20.262
 106669510.697 9  19953709.095        4315.072          23.840
 106774790.136 6  20380132.390        -625.355          15.258
 117594105.298 5  22080769.519        1676.899          10.805
 107640496.983 7  20766034.775        5206.498          17.621
 97  2 28 18 56 18.8344771  0  9G31G27G19G 7G18G 2G 3G10G15
  90997204.374 8  17394307.125         798.978          22.625
  95921840.213 6  18161246.702        5098.060          14.402
  88180950.634 9  16728004.780        3113.213          26.035
 114443772.062 3  21433114.722        6101.691           5.160
  92123358.583 7  17794762.986          -5.139          20.043
 106665197.481 9  19952888.332        4311.071          23.840
 106775417.668 6  20380251.806        -629.551          15.535
 117592431.217 5  22080452.128        1671.618          10.727
 107635292.438 7  20765044.371        5202.350          17.195
 97  2 28 18 56 19.8344828  0  9G31G27G19G 7G18G 2G 3G10G15
  90996407.683 8  17394155.520         794.860          22.461
  95916743.884 6  18160276.901        5094.341          14.059
  88177839.754 9  16727412.802        3109.137          25.859
 114437671.974 3  21431951.020        6098.061           5.008
  92123365.748 8  17794764.345          -9.223          20.328
 106660888.285 8  19952068.329        4307.296          23.199
 106776049.314 6  20380372.002        -634.002          15.418
 117590761.539 5  22080135.736        1667.836          10.676
 107630091.751 7  20764054.700        5198.522          17.629
 97  2 28 18 56 20.8344886  0  9G31G27G19G 7G18G 2G 3G10G15
  90995615.476 8  17394004.770         789.873          22.598
  95911651.622 6  18159307.874        5090.157          14.098
  88174733.143 9  16726821.634        3104.647          25.898
 114431575.812 3  21430788.965        6094.892           5.020
  92123377.287 8  17794766.536         -13.721          20.488
 106656583.183 8  19951249.100        4303.115          22.930
 106776685.076 6  20380492.982        -637.922          15.648
 117589096.136 4  22079819.848        1662.830          10.289
 107624894.991 7  20763065.778        5195.554          17.488
 97  2 28 18 56 21.8344943  0  9G31G27G19G 7G18G 2G 3G10G15
  90994827.931 8  17393854.907         785.355          22.242
  95906563.514 6  18158339.637        5086.113          14.164
  88171630.894 9  16726231.295        3100.406          25.434
 114425483.832 3  21429628.436        6090.096           4.934
  92123393.292 8  17794769.578         -18.491          20.707
 106652282.258 8  19950430.665        4299.058          22.551
 106777325.121 6  20380614.776        -642.266          15.629
 117587435.202 5  22079504.747        1658.795          10.914
 107619702.340 7  20762077.640        5190.384          17.766
 97  2 28 18 56 22.8345000  0  9G31G27G19G 7G18G 2G 3G10G15
  90994044.992 8  17393705.919         780.625          22.313
  95901479.605 6  18157372.198        5082.072          14.059
  88168533.063 9  16725641.797        3095.078          25.535
 114419395.940 2  21428469.395        6085.443           4.492
  92123413.833 8  17794773.485         -22.949          20.910
 106647985.562 8  19949613.034        4294.559          22.543
 106777969.468 6  20380737.390        -646.334          15.566
 117585778.771 5  22079190.822        1654.025          10.887
 107614513.710 7  20761090.263        5186.271          17.949
 97  2 28 18 56 23.8345058  0  9G31G27G19G 7G18G 2G 3G10G15
  90993266.876 8  17393557.850         775.766          22.164
  95896400.044 6  18156405.585        5077.520          14.215
  88165439.801 9  16725053.169        3090.782          25.305
 114413312.256 2  21427310.408        6081.060           4.449
  92123439.019 8  17794778.275         -27.322          21.086
 106643693.209 8  19948796.229        4290.256          22.566
 106778618.248 6  20380860.845        -650.832          15.711
 117584126.942 5  22078877.299        1648.927          11.094
 107609329.332 7  20760103.701        5181.964          17.797
 97  2 28 18 56 24.8345115  0  9G31G27G19G 7G18G 2G 3G10G15
  90992493.728 8  17393410.725         770.580          21.824
  95891325.027 6  18155439.837        5072.584          14.230
  88162351.338 9  16724465.453        3086.360          25.480
 114407233.082 2  21426152.356        6077.019           3.918
  92123469.104 8  17794784.000         -32.885          21.285
 106639405.484 8  19947980.309        4285.210          22.738
 106779271.666 6  20380985.185        -655.575          15.758
 117582479.971 5  22078564.962        1644.021          11.250
 107604149.390 7  20759117.986        5178.118          17.762
 97  2 28 18 56 25.8345172  0  9G31G27G19G 7G18G 2G 3G10G15
  90991725.928 8  17393264.617         765.443          21.723
  95886254.912 6  18154475.022        5067.887          14.488
  88159268.004 9  16723878.714        3080.979          25.785
 114401158.720 2  21424995.174        6072.404           4.215
  92123504.342 8  17794790.706         -37.918          21.805
 106635122.646 8  19947165.319        4280.130          22.953
 106779930.095 6  20381110.479        -661.103          15.855
 117580838.181 5  22078253.533        1638.908          11.145
 107598974.216 7  20758133.176        5173.433          17.785
 97  2 28 18 56 26.8345229  0  9G31G27G19G 7G18G 2G 3G10G15
  90990963.345 8  17393119.502         760.151          21.156
  95881189.610 6  18153511.124        5062.903          14.852
  88156189.728 9  16723292.934        3075.881          25.348
 114395089.065 2  21423839.623        6067.730           4.156
  92123544.758 8  17794798.398         -42.640          21.898
 106630844.637 8  19946351.246        4275.699          23.145
 106780593.391 6  20381236.699        -665.760          15.879
 117579201.475 5  22077942.875        1633.743          11.063
 107593803.722 7  20757149.260        5168.247          17.617
 97  2 28 18 56 27.8345286  0  9G31G27G19G 7G18G 2G 3G10G15
  90990205.807 8  17392975.346         755.083          21.340
  95876128.873 6  18152548.095        5058.528          14.758
  88153116.232 9  16722708.064        3071.201          25.488
 114389023.967 2  21422687.885        6063.026           4.434
  92123590.039 8  17794807.017         -47.903          22.180
 106626571.242 8  19945538.051        4271.154          22.496
 106781261.398 6  20381363.816        -670.398          15.664
 117577569.640 5  22077633.444        1629.382          11.262
 107588637.701 7  20756166.197        5164.737          17.539
 97  2 28 18 56 28.8345344  0  9G31G27G19G 7G18G 2G 3G10G15
  90989453.283 8  17392832.143         750.178          21.617
  95871072.729 6  18151585.939        5053.722          14.996
  88150047.537 9  16722124.107        3066.381          25.434
 114382963.316 2  21421534.482        6058.081           4.301
  92123640.195 8  17794816.563         -52.661          22.648
 106622302.447 8  19944725.731        4266.287          22.320
 106781934.060 6  20381491.819        -675.017          15.637
 117575942.660 5  22077324.810        1624.937          11.051
 107583476.152 7  20755183.984        5159.456          17.512
 97  2 28 18 56 29.8345401  0  9G31G27G19G 7G18G 2G 3G10G15
  90988706.240 8  17392689.983         744.261          21.488
  95866021.614 6  18150624.738        5048.611          15.195
  88146984.087 9  16721541.148        3060.943          25.559
 114376907.651 3  21420385.127        6053.432           4.531
  92123695.769 8  17794827.141         -58.260          22.574
 106618038.732 8  19943914.374        4261.300          22.117
 106782611.883 6  20381620.803        -680.439          15.867
 117574320.958 5  22077016.974        1619.608          10.984
 107578319.458 7  20754202.698        5154.711          17.379
 97  2 28 18 56 30.8345459  0  9G31G27G19G 7G18G 2G 3G10G15
  90987964.782 8  17392548.886         738.508          21.676
  95860975.661 6  18149664.520        5043.237          15.313
  88143926.042 9  16720959.218        3055.495          25.477
 114370857.094 2  21419235.156        6047.995           4.449
  92123756.787 8  17794838.756         -63.643          22.738
 106613780.193 8  19943104.002        4255.958          22.160
 106783294.934 6  20381750.783        -685.926          15.852
 117572704.666 5  22076710.141        1613.661          11.203
 107573167.821 7  20753222.381        5148.875          17.523
 97  2 28 18 56 31.8345513  0  9G31G27G19G 7G18G 2G 3G10G15
  90987229.237 8  17392408.913         732.629          22.020
  95855935.127 6  18148705.333        5037.990          15.164
  88140873.624 9  16720378.359        3049.433          25.457
 114364811.658 2  21418089.873        6042.208           4.164
  92123823.523 8  17794851.460         -69.919          23.035
 106609527.115 8  19942294.666        4250.327          21.926
 106783983.536 6  20381881.820        -691.055          15.777
 117571094.092 5  22076404.199        1607.903          10.719
 107568021.527 7  20752243.078        5143.093          17.488
 97  2 28 18 56 32.8345573  0  9G31G27G19G 7G18G 2G 3G10G15
  90986499.914 8  17392270.126         725.805          21.887
  95850900.420 6  18147747.256        5031.864          15.207
  88137827.264 9  16719798.652        3043.238          25.641
 114358772.298 3  21416941.981        6036.269           4.508
  92123896.454 8  17794865.343         -76.197          22.879
 106605279.897 8  19941486.446        4244.335          21.840
 106784678.042 6  20382013.980        -697.345          15.820
 117569489.646 5  22076099.608        1602.258          11.402
 107562880.912 7  20751264.858        5137.416          17.473
 97  2 28 18 56 33.8345630  0  9G31G27G19G 7G18G 2G 3G10G15
  90985777.308 8  17392132.618         719.273          22.055
  95845871.996 6  18146790.374        5025.142          15.203
  88134787.429 9  16719220.188        3036.828          25.676
 114352739.011 2  21415795.116        6029.852           4.406
  92123975.936 8  17794880.473         -82.967          22.809
 106601038.963 8  19940679.420        4237.544          22.027
 106785378.977 6  20382147.364        -704.170          15.816
 117567891.634 5  22075796.247        1594.821          11.324
 107557746.448 7  20750287.810        5130.944          17.652
 97  2 28 18 56 34.8345688  0  9G31G27G19G 7G18G 2G 3G10G15
  90985062.020 8  17391996.504         711.509          22.090
  95840850.436 6  18145834.799        5017.838          15.199
  88131754.692 9  16718643.074        3028.771          25.836
 114346712.575 2  21414650.473        6022.993           4.410
  92124062.646 8  17794896.978         -90.462          23.051
 106596804.956 8  19939873.709        4230.515          21.762
 106786086.883 6  20382282.076        -711.457          15.617
 117566300.854 5  22075494.045        1587.658          11.043
 107552618.738 7  20749312.043        5124.362          17.898
 97  2 28 18 56 35.8345745  0  9G31G27G19G 7G18G 2G 3G10G15
  90984354.763 8  17391861.917         703.164          21.785
  95835836.460 6  18144880.667        5010.031          15.555
  88128729.759 9  16718067.448        3020.721          26.066
 114340693.497 2  21413508.361        6015.349           4.348
  92124157.215 8  17794914.978         -98.771          23.172
 106592578.523 8  19939069.439        4222.221          21.723
 106786802.500 6  20382418.256        -719.558          15.637
 117564717.866 5  22075193.231        1578.542          10.605
 107547498.477 7  20748337.695        5116.343          18.000
 97  2 28 18 56 36.8345802  0  9G31G27G19G 7G18G 2G 3G10G15
  90983656.037 8  17391728.954         694.312          21.367
  95830830.590 6  18143928.079        5001.737          15.645
  88125713.172 9  16717493.411        3012.721          26.047
 114334682.530 3  21412366.086        6007.178           4.676
  92124260.216 8  17794934.583        -107.129          23.145
 106588360.272 8  19938266.726        4213.956          21.629
 106787526.300 6  20382555.994        -728.139          15.586
 117563143.239 4  22074893.717        1570.579          10.215
 107542386.229 7  20747364.871        5108.185          17.832
 97  2 28 18 56 37.8345859  0  9G31G27G19G 7G18G 2G 3G10G15
  90982966.034 8  17391597.651         685.853          21.375
  95825833.047 6  18142977.078        4993.462          16.367
  88122705.069 9  16716920.988        3004.029          26.199
 114328679.777 3  21411225.020        5998.266           4.563
  92124371.828 8  17794955.826        -115.842          23.102
 106584150.300 8  19937465.589        4206.062          21.566
 106788258.534 6  20382695.335        -736.699          15.660
 117561577.192 5  22074595.882        1561.802          10.898
 107537282.153 7  20746393.598        5099.879          17.590
 97  2 28 18 56 38.8345917  0  9G31G27G19G 7G18G 2G 3G10G15
  90982284.581 8  17391467.976         677.175          21.113
  95820843.560 6  18142027.611        4985.652          16.813
  88119705.269 9  16716350.145        2995.810          26.070
 114322684.998 3  21410085.420        5991.070           4.855
  92124491.841 8  17794978.668        -124.344          23.059
 106579948.458 8  19936666.003        4197.967          22.223
 106788998.928 6  20382836.230        -744.452          15.512
 117560019.439 5  22074299.835        1553.579          11.492
 107532186.028 7  20745423.840        5092.429          17.688
 97  2 28 18 56 39.8345974  0  9G31G27G19G 7G18G 2G 3G10G15
  90981611.414 8  17391339.876         669.211          20.926
  95815861.966 7  18141079.645        4978.009          17.004
  88116713.537 9  16715780.838        2988.014          26.328
 114316698.000 3  21408946.816        5983.998           4.836
  92124619.980 8  17795003.055        -132.043          22.938
 106575754.527 8  19935867.925        4190.206          22.238
 106789747.266 6  20382978.635        -751.879          15.230
 117558469.831 5  22074005.191        1545.648          11.273
 107527097.629 7  20744455.549        5084.869          17.258
 97  2 28 18 56 40.8346031  0  9G31G27G19G 7G18G 2G 3G10G15
  90980946.285 8  17391213.304         661.660          21.039
  95810887.974 7  18140133.130        4970.574          17.227
  88113729.651 9  16715213.023        2980.287          25.895
 114310718.463 3  21407810.607        5975.967           5.574
  92124756.080 8  17795028.957        -139.576          22.898
 106571568.205 8  19935071.294        4182.596          22.586
 106790503.299 6  20383122.505        -759.738          15.223
 117556928.031 5  22073712.039        1537.842          10.797
 107522016.699 7  20743488.681        5077.538          17.305
 97  2 28 18 56 41.8346088  0  9G31G27G19G 7G18G 2G 3G10G15
  90980288.487 8  17391088.128         653.933          21.258
  95805920.929 7  18139187.938        4963.712          17.461
  88110752.942 9  16714646.573        2973.246          25.563
 114304745.858 3  21406675.240        5969.707           5.754
  92124899.413 8  17795056.235        -146.815          22.988
 106567388.865 8  19934275.995        4175.831          22.418
 106791266.382 6  20383267.717        -766.396          15.340
 117555393.511 5  22073420.226        1530.841          10.953
 107516942.642 7  20742523.114        5070.574          17.324
 97  2 28 18 56 42.8346145  0  9G31G27G19G 7G18G 2G 3G10G15
  90979637.752 8  17390964.296         647.495          21.184
  95800960.538 7  18138244.011        4957.079          17.383
  88107783.030 9  16714081.415        2966.908          25.461
 114298779.750 3  21405540.988        5962.382           5.500
  92125049.649 8  17795084.826        -153.666          22.773
 106563216.190 8  19933481.965        4169.255          22.301
 106792036.220 6  20383414.213        -773.068          15.508
 117553865.867 5  22073129.652        1524.820          10.906
 107511875.025 7  20741558.772        5064.505          17.008
 97  2 28 18 56 43.8346202  0  9G31G27G19G 7G18G 2G 3G10G15
  90978993.954 8  17390841.784         640.314          21.254
  95796006.639 7  18137301.322        4950.735          17.578
  88104819.846 9  16713517.538        2959.737          25.465
 114292820.043 3  21404407.683        5956.715           5.891
  92125206.691 8  17795114.709        -160.636          22.383
 106559050.020 8  19932689.172        4162.895          22.152
 106792812.601 6  20383561.956        -779.886          15.313
 117552344.912 5  22072840.420        1517.781          11.133
 107506813.838 7  20740595.652        5058.749          17.066
 97  2 28 18 56 44.8346260  0  9G31G27G19G 7G18G 2G 3G10G15
  90978357.245 8  17390720.621         633.043          21.621
  95791059.433 7  18136359.907        4943.863          17.746
  88101863.583 9  16712954.978        2952.965          25.852
 114286866.936 3  21403275.364        5949.653           6.285
  92125370.728 8  17795145.924        -167.826          22.305
 106554890.533 8  19931897.654        4156.128          22.348
 106793595.758 6  20383710.987        -786.533          15.563
 117550830.840 5  22072552.556        1510.393          11.664
 107501759.127 6  20739633.764        5051.395          16.828
 97  2 28 18 56 45.8346317  0  9G31G27G19G 7G18G 2G 3G10G15
  90977727.943 8  17390600.868         625.789          21.906
  95786119.201 7  18135419.818        4936.644          17.727
  88098914.435 9  16712393.773        2946.059          25.605
 114280920.714 3  21402144.303        5943.316           6.508
  92125542.006 8  17795178.517        -175.054          22.340
 106550738.053 8  19931107.469        4149.019          22.387
 106794386.011 6  20383861.367        -793.835          14.922
 117549324.043 5  22072266.106        1503.053          11.805
 107496711.302 6  20738673.185        5044.874          16.711
 97  2 28 18 56 46.8346374  0  9G31G27G19G 7G18G 2G 3G10G15
  90977106.025 8  17390482.521         618.227          21.938
  95781185.939 7  18134481.056        4929.963          17.969
  88095972.498 9  16711833.941        2938.079          25.559
 114274981.277 3  21401013.815        5936.222           6.879
  92125720.522 8  17795212.486        -181.970          22.574
 106546592.544 8  19930318.608        4141.938          22.258
 106795183.245 6  20384013.077        -800.571          14.770
 117547824.435 5  22071981.169        1495.879          12.480
 107491670.323 6  20737713.908        5038.125          16.535
 97  2 28 18 56 47.8346431  0  9G31G27G19G 7G18G 2G 3G10G15
  90976491.788 8  17390365.636         610.353          21.906
  95776259.969 7  18133543.681        4922.236          18.020
  88093038.001 9  16711275.524        2930.398          25.703
 114269049.048 3  21399885.202        5928.537           6.590
  92125906.597 8  17795247.893        -190.192          22.488
 106542454.273 8  19929531.124        4134.403          21.805
 106795987.880 6  20384166.193        -808.108          14.504
 117546332.339 5  22071697.538        1488.445          12.379
 107486636.412 7  20736755.976        5030.379          17.066
 97  2 28 18 56 48.8346488  0  9G31G27G19G 7G18G 2G 3G10G15
  90975886.005 8  17390250.360         601.531          22.008
  95771342.035 7  18132607.834        4913.983          18.117
  88090111.755 9  16710718.678        2922.079          25.531
 114263124.758 3  21398757.731        5920.196           6.762
  92126100.999 8  17795284.886        -198.604          22.570
 106538324.068 8  19928745.172        4125.891          21.430
 106796800.629 6  20384320.854        -816.696          14.398
 117544848.475 5  22071415.466        1479.709          11.887
 107481610.432 7  20735799.553        5021.497          16.965
 97  2 28 18 56 49.8346545  0  9G31G27G19G 7G18G 2G 3G10G15
  90975288.949 8  17390136.743         592.980          22.172
  95766432.393 7  18131673.565        4905.405          18.207
  88087193.990 9  16710163.443        2914.005          25.266
 114257208.710 3  21397632.226        5911.793           7.078
  92126303.997 8  17795323.518        -207.220          22.934
 106534202.167 8  19927960.800        4117.690          21.176
 106797621.785 6  20384477.114        -825.175          14.484
 117543373.127 5  22071134.970        1471.111          12.082
 107476592.641 7  20734844.687        5013.465          17.012
 97  2 28 18 56 50.8346602  0  9G31G27G19G 7G18G 2G 3G10G15
  90974700.528 8  17390024.770         584.194          21.996
  95761530.993 7  18130740.864        4897.488          18.121
  88084284.652 9  16709609.812        2905.170          25.324
 114251300.735 3  21396507.744        5904.317           7.211
  92126515.468 8  17795363.761        -215.659          23.129
 106530088.458 8  19927177.984        4109.804          20.805
 106798451.189 6  20384634.942        -833.695          14.129
 117541906.282 5  22070855.946        1463.060          11.570
 107471582.888 7  20733891.354        5006.293          17.254
 97  2 28 18 56 51.8346659  0  9G31G27G19G 7G18G 2G 3G10G15
  90974120.611 8  17389914.415         575.672          21.863
  95756637.648 7  18129809.692        4889.117          18.281
  88081383.532 9  16709057.746        2897.312          25.305
 114245400.768 3  21395385.441        5895.980           7.383
  92126735.299 8  17795405.596        -223.955          23.070
 106525982.831 8  19926396.704        4101.344          20.547
 106799288.763 6  20384794.326        -841.821          14.355
 117540447.683 5  22070578.598        1455.245          11.641
 107466581.088 7  20732939.534        4997.375          17.469
 97  2 28 18 56 52.8346716  0  9G31G27G19G 7G18G 2G 3G10G15
  90973549.072 8  17389805.654         567.702          21.570
  95751752.296 7  18128880.042        4881.482          18.336
  88078490.635 9  16708507.246        2889.287          25.051
 114239508.634 4  21394264.178        5887.678           7.695
  92126963.350 8  17795448.997        -232.273          23.309
 106521885.144 8  19925616.934        4094.132          20.141
 106800134.375 6  20384955.240        -849.452          13.918
 117538997.303 5  22070302.756        1445.949          11.273
 107461587.080 7  20731989.198        4990.627          17.730
 97  2 28 18 56 53.8346773  0  9G31G27G19G 7G18G 2G 3G10G15
  90972985.586 8  17389698.426         559.967          21.262
  95746874.548 7  18127951.834        4874.215          18.238
  88075605.542 9  16707958.232        2881.542          25.180
 114233624.128 4  21393145.009        5881.038           7.887
  92127199.347 9  17795493.911        -239.561          23.520
 106517795.098 7  19924838.614        4086.490          19.832
 106800987.683 6  20385117.618        -857.355          14.285
 117537554.762 5  22070028.425        1438.735          11.305
 107456600.622 7  20731040.300        4982.877          18.223
 97  2 28 18 56 54.8346830  0  9G31G27G19G 7G18G 2G 3G10G15
  90972429.567 8  17389592.619         552.638          21.168
  95742003.862 7  18127024.971        4867.100          18.363
  88072727.680 9  16707410.592        2874.383          25.293
 114227746.482 4  21392027.374        5874.320           8.523
  92127442.640 8  17795540.211        -246.666          23.305
 106513712.077 7  19924061.633        4079.538          19.703
 106801848.157 6  20385281.360        -863.867          14.320
 117536119.537 5  22069755.617        1431.533          11.090
 107451621.041 7  20730092.716        4976.837          18.645
 97  2 28 18 56 55.8346887  0  9G31G27G19G 7G18G 2G 3G10G15
  90971880.832 8  17389488.199         545.169          21.000
  95737140.017 7  18126099.409        4860.493          18.289
  88069856.861 9  16706864.293        2867.520          25.402
 114221875.646 4  21390910.759        5867.482           8.613
  92127693.065 8  17795587.868        -253.960          23.109
 106509635.861 7  19923285.949        4072.818          19.910
 106802715.523 6  20385446.413        -870.484          14.324
 117534691.370 5  22069484.048        1424.481          11.227
 107446648.132 7  20729146.403        4969.695          18.777
 97  2 28 18 56 56.8346944  0  9G31G27G19G 7G18G 2G 3G10G15
  90971339.753 8  17389385.235         536.866          20.758
  95732283.417 7  18125175.227        4852.883          18.539
  88066993.423 9  16706319.399        2859.192          25.316
 114216011.919 4  21389795.329        5860.021           8.516
  92127950.969 8  17795636.948        -261.803          23.184
 106505566.873 7  19922511.642        4065.298          20.043
 106803590.166 6  20385612.851        -877.991          14.172
 117533270.678 5  22069213.960        1416.786          11.313
 107441682.335 7  20728201.446        4962.360          18.875
 97  2 28 18 56 57.8347001  0  9G31G27G19G 7G18G 2G 3G10G15
  90970807.061 8  17389283.867         528.131          20.977
  95727434.756 7  18124252.554        4844.473          18.512
  88064138.172 9  16705776.062        2851.240          25.137
 114210156.063 4  21388681.576        5851.459           8.492
  92128217.108 8  17795687.594        -270.062          23.176
 106501505.839 8  19921738.851        4056.910          20.398
 106804472.891 6  20385780.828        -886.756          13.902
 117531858.133 5  22068945.283        1408.343          10.816
 107436724.342 7  20727257.977        4953.904          19.008
 97  2 28 18 56 58.8347058  0  9G31G27G19G 7G18G 2G 3G10G15
  90970283.353 8  17389184.210         519.214          21.504
  95722594.672 7  18123331.514        4836.061          18.754
  88061291.695 9  16705234.392        2842.135          25.344
 114204308.732 4  21387569.123        5842.867           8.820
  92128492.106 8  17795739.924        -279.493          23.355
 106497453.348 8  19920967.684        4048.055          20.512
 106805364.254 6  20385950.447        -895.766          14.039
 117530454.380 5  22068678.290        1399.192          11.020
 107431774.801 7  20726316.118        4945.189          18.840
 97  2 28 18 56 59.8347115  0  9G31G27G19G 7G18G 2G 3G10G15
  90969769.112 8  17389086.354         509.231          21.641
  95717763.683 7  18122412.208        4826.460          19.371
  88058454.462 9  16704694.483        2832.434          25.172
 114198470.309 4  21386458.771        5834.122           8.926
  92128776.410 8  17795794.025        -289.088          23.176
 106493409.917 8  19920198.243        4038.872          20.328
 106806264.760 6  20386121.806        -905.148          13.750
 117529059.939 5  22068413.085        1390.097          10.738
 107426834.172 7  20725375.952        4936.087          18.820
 97  2 28 18 57  0.8347172  0  9G31G27G19G 7G18G 2G 3G10G15
  90969264.782 8  17388990.386         499.486          21.797
  95712942.068 7  18121494.683        4817.004          19.641
  88055626.832 9  16704156.401        2822.874          25.551
 114192641.292 4  21385350.180        5824.763           8.797
  92129070.439 8  17795849.975        -298.757          23.176
 106489375.888 7  19919430.591        4029.408          20.027
 106807174.828 6  20386294.984        -914.500          13.824
 117527675.139 5  22068149.652        1380.175          10.992
 107421902.865 7  20724437.560        4926.686          18.676
 97  2 28 18 57  1.8347226  0  9G31G27G19G 7G18G 2G 3G10G15
  90968770.167 8  17388896.266         489.871          22.020
  95708129.759 8  18120578.932        4807.827          20.184
  88052808.692 9  16703620.127        2813.812          25.703
 114186821.438 4  21384243.285        5815.106           8.789
  92129374.051 8  17795907.749        -308.302          23.297
 106485351.135 7  19918664.704        4020.469          19.590
 106808094.185 6  20386469.931        -923.541          13.754
 117526299.805 5  22067888.079        1370.481          11.020
 107416980.654 7  20723500.900        4917.869          18.574
 97  2 28 18 57  2.8347286  0  9G31G27G19G 7G18G 2G 3G10G15
  90968284.501 8  17388803.848         481.546          21.848
  95703325.981 8  18119664.807        4799.722          20.582
  88049999.284 9  16703085.514        2805.649          25.887
 114181010.049 4  21383138.206        5807.476           9.234
  92129686.447 8  17795967.195        -316.289          23.309
 106481334.912 7  19917900.438        4012.340          19.402
 106809022.203 5  20386646.526        -932.459          13.477
 117524933.292 5  22067628.228        1363.082          10.852
 107412066.871 7  20722565.843        4909.652          18.246
 97  2 28 18 57  3.8347343  0  9G31G27G19G 7G18G 2G 3G10G15
  90967807.163 8  17388713.015         473.556          21.906
  95698530.120 8  18118752.188        4792.275          20.828
  88047197.986 9  16702552.446        2797.519          25.906
 114175206.499 4  21382034.151        5800.098           9.152
  92130007.083 9  17796028.211        -324.676          23.609
 106477326.544 7  19917137.665        4004.713          19.203
 106809958.231 6  20386824.645        -939.562          13.652
 117523574.865 5  22067369.843        1354.167          10.750
 107407160.856 7  20721632.265        4901.913          18.414
 97  2 28 18 57  4.8347400  0  9G31G27G19G 7G18G 2G 3G10G15
  90967337.495 8  17388623.642         466.492          21.699
  95693741.486 8  18117840.946        4785.159          20.977
  88044404.087 9  16702020.786        2790.898          25.961
 114169410.063 4  21380931.493        5793.363           9.512
  92130335.209 9  17796090.653        -331.676          23.711
 106473325.409 7  19916376.266        3997.776          18.965
 106810901.515 6  20387004.145        -946.155          13.742
 117522223.911 5  22067112.799        1347.219          10.781
 107402261.926 7  20720700.034        4895.656          18.605
 97  2 28 18 57  5.8347456  0  9G31G27G19G 7G18G 2G 3G10G15
  90966875.033 8  17388535.638         458.883          21.488
  95688959.575 8  18116930.984        4778.489          21.230
  88041617.177 9  16701490.455        2782.994          26.133
 114163620.357 4  21379830.126        5785.657           9.324
  92130670.420 9  17796154.442        -338.682          23.875
 106469331.029 7  19915616.155        3991.104          19.113
 106811851.702 6  20387184.957        -953.490          14.016
 117520879.952 5  22066857.087        1340.104          10.684
 107397369.635 7  20719769.066        4888.911          18.535
 97  2 28 18 57  6.8347513  0  9G31G27G19G 7G18G 2G 3G10G15
  90966419.893 8  17388449.029         451.307          21.680
  95684184.585 8  18116022.334        4771.507          20.832
  88038837.348 9  16700961.471        2776.434          26.195
 114157837.410 4  21378730.299        5779.360           9.535
  92131012.792 9  17796219.594        -346.295          24.102
 106465343.501 7  19914857.348        3984.063          19.102
 106812808.851 6  20387367.094        -960.884          13.988
 117519543.123 5  22066602.686        1332.959          10.742
 107392484.078 7  20718839.380        4882.127          18.270
 97  2 28 18 57  7.8347570  0  9G31G27G19G 7G18G 2G 3G10G15
  90965972.458 8  17388363.886         443.429          21.332
  95679416.831 8  18115115.061        4764.144          20.816
  88036064.930 9  16700433.897        2767.893          26.516
 114152061.694 4  21377631.750        5772.310           9.762
  92131362.678 9  17796286.176        -353.919          24.266
 106461363.284 7  19914099.930        3976.645          18.969
 106813773.311 6  20387550.625        -968.030          14.008
 117518213.796 5  22066349.749        1325.274          10.676
 107387605.654 7  20717911.050        4874.658          18.145
 97  2 28 18 57  8.8347627  0  9G31G27G19G 7G18G 2G 3G10G15
  90965533.023 8  17388280.265         435.387          21.441
  95674656.688 8  18114209.233        4756.272          20.746
  88033300.342 9  16699907.816        2760.892          27.105
 114146293.439 4  21376534.367        5764.337           9.785
  92131720.473 9  17796354.263        -361.665          24.207
 106457390.638 7  19913343.954        3969.298          19.059
 106814745.443 6  20387735.615        -975.952          13.777
 117516892.217 4  22066098.253        1317.772           9.988
 107382734.655 7  20716984.130        4867.428          17.793
 97  2 28 18 57  9.8347684  0  9G31G27G19G 7G18G 2G 3G10G15
  90965101.814 8  17388198.210         427.429          21.586
  95669904.273 8  18113304.878        4748.526          21.035
  88030543.634 9  16699383.234        2752.853          27.406
 114140532.846 4  21375438.219        5757.105           9.371
  92132086.276 9  17796423.874        -369.584          24.492
 106453425.686 7  19912589.440        3960.959          18.512
 106815725.397 6  20387922.095        -983.603          13.758
 117515578.632 4  22065848.256        1310.451           9.637
 107377871.290 7  20716058.663        4859.797          17.223
 97  2 28 18 57 10.8347740  0  9G31G27G19G 7G18G 2G 3G10G15
  90964678.795 8  17388117.714         418.674          21.434
  95665159.675 8  18112402.013        4740.683          21.262
  88027794.990 9  16698860.185        2744.811          27.445
 114134780.007 4  21374343.623        5749.156           9.566
  92132460.197 9  17796495.031        -378.003          24.547
 106449468.546 7  19911836.411        3953.240          18.250
 106816713.279 6  20388110.082        -991.822          13.809
 117514273.087 4  22065599.851        1301.667           9.398
 107373015.595 6  20715134.655        4852.214          16.797
 97  2 28 18 57 11.8347797  0  9G31G27G19G 7G18G 2G 3G10G15
  90964264.076 8  17388038.796         410.846          21.395
  95660422.840 8  18111500.624        4733.244          21.875
  88025054.316 9  16698338.654        2737.199          27.703
 114129034.877 4  21373250.546        5741.650           9.504
  92132842.187 9  17796567.725        -385.374          24.828
 106445519.191 7  19911084.864        3945.498          17.980
 106817708.999 6  20388299.561        -999.716          14.121
 117512975.578 4  22065352.920        1293.290           8.703
 107368167.540 6  20714212.099        4844.237          16.484
 97  2 28 18 57 12.8347854  0  9G31G27G19G 7G18G 2G 3G10G15
  90963857.638 8  17387961.454         402.272          21.422
  95655693.874 8  18110600.737        4725.166          22.398
  88022321.658 9  16697818.647        2729.026          27.629
 114123297.547 4  21372158.884        5733.441           9.434
  92133232.296 9  17796641.964        -393.711          24.746
 106441577.697 7  19910334.812        3937.482          17.383
 106818712.633 5  20388490.545       -1007.417          13.586
 117511686.121 4  22065107.519        1285.136           9.035
 107363327.215 6  20713291.012        4836.929          16.129
 97  2 28 18 57 13.8347910  0  9G31G27G19G 7G18G 2G 3G10G15
  90963459.841 8  17387885.755         393.462          21.371
  95650973.118 8  18109702.412        4716.716          22.715
  88019597.417 9  16697300.242        2719.110          28.102
 114117568.301 4  21371068.613        5724.068           9.629
  92133630.901 9  17796717.821        -402.762          24.844
 106437644.427 7  19909586.324        3929.209          17.480
 106819724.591 5  20388683.115       -1016.301          13.473
 117510405.106 4  22064863.764        1277.086           9.164
 107358494.981 6  20712371.463        4828.035          15.391
 97  2 28 18 57 14.8347967  0  9G31G27G19G 7G18G 2G 3G10G15
  90963070.837 8  17387811.728         384.583          21.277
  95646260.705 8  18108805.677        4708.195          22.789
  88016881.750 9  16696783.469        2711.658          28.160
 114111847.355 4  21369980.088        5717.208           9.543
  92134038.182 9  17796795.329        -410.960          25.219
 106433719.464 7  19908839.420        3920.888          17.906
 106820744.984 5  20388877.290       -1024.842          13.438
 117509132.682 4  22064621.651        1267.785           9.242
 107353670.923 6  20711453.465        4819.892          15.336
 97  2 28 18 57 15.8348024  0  9G31G27G19G 7G18G 2G 3G10G15
  90962690.489 8  17387739.348         376.207          21.055
  95641556.445 8  18107910.490        4700.697          23.242
  88014174.430 9  16696268.286        2703.677          28.258
 114106134.506 4  21368893.023        5709.269           9.566
  92134453.863 9  17796874.438        -419.561          25.109
 106429802.654 7  19908094.069        3912.980          18.008
 106821773.575 5  20389073.026       -1032.098          13.520
 117507868.673 4  22064381.175        1260.794           9.516
 107348854.944 6  20710537.004        4811.921          15.602
 97  2 28 18 57 16.8348080  0  9G31G27G19G 7G18G 2G 3G10G15
  90962318.321 8  17387668.524         368.770          20.863
  95636859.917 9  18107016.776        4692.993          23.863
  88011475.067 9  16695754.617        2696.024          28.332
 114100429.323 4  21367807.329        5701.662          10.031
  92134877.613 9  17796955.083        -427.239          25.457
 106425893.580 7  19907350.191        3905.335          17.977
 106822810.030 5  20389270.259       -1039.977          13.121
 117506612.597 4  22064142.200        1252.114           9.234
 107344046.514 6  20709621.982        4804.704          15.102
 97  2 28 18 57 17.8348137  0  9G31G27G19G 7G18G 2G 3G10G15
  90961953.780 8  17387599.153         361.103          20.578
  95632170.618 9  18106124.437        4686.084          23.781
  88008783.145 9  16695242.364        2688.435          28.035
 114094731.253 4  21366722.939        5695.036           9.793
  92135308.836 9  17797037.150        -434.960          25.371
 106421991.738 7  19906607.689        3898.417          18.156
 106823853.767 5  20389468.877       -1046.876          13.141
 117505363.983 4  22063904.630        1245.063           8.785
 107339245.212 6  20708708.315        4797.989          15.121
 97  2 28 18 57 18.8348194  0  9G31G27G19G 7G18G 2G 3G10G15
  90961596.577 8  17387531.177         353.829          20.297
  95627488.115 9  18105233.391        4679.098          24.168
  88006098.255 9  16694731.447        2681.589          28.246
 114089039.958 4  21365639.926        5687.838          10.301
  92135747.205 9  17797120.576        -442.080          25.184
 106418096.689 7  19905866.479        3892.010          17.855
 106824904.415 5  20389668.810       -1053.496          13.051
 117504122.451 4  22063668.451        1238.089           8.793
 107334450.612 6  20707795.924        4791.165          15.059
 97  2 28 18 57 19.8348250  0  9G31G27G19G 7G18G 2G 3G10G15
  90961246.355 7  17387464.530         346.819          20.117
  95622812.135 9  18104343.584        4672.922          24.207
  88003420.067 9  16694221.805        2675.348          28.266
 114083355.139 4  21364558.244        5681.802          10.027
  92136192.401 9  17797205.301        -448.558          24.984
 106414208.156 7  19905126.509        3885.408          17.703
 106825961.749 5  20389870.017       -1060.329          13.230
 117502887.637 4  22063433.544        1232.454           8.582
 107329662.368 6  20706884.742        4784.580          15.367
 97  2 28 18 57 20.8348307  0  9G31G27G19G 7G18G 2G 3G10G15
  90960902.955 7  17387399.181         339.801          19.887
  95618142.540 9  18103454.991        4666.646          24.090
  88000748.508 9  16693713.422        2667.742          28.195
 114077676.605 4  21363477.717        5675.437           9.965
  92136644.291 9  17797291.301        -455.115          24.863
 106410326.036 7  19904387.757        3879.154          17.523
 106827025.460 5  20390072.435       -1067.089          13.164
 117501659.456 4  22063199.831        1225.437           8.117
 107324880.378 6  20705974.750        4778.420          15.637
 97  2 28 18 57 21.8348363  0  9G31G27G19G 7G18G 2G 3G10G15
  90960566.433 7  17387335.142         333.356          19.813
  95613479.300 9  18102567.607        4660.074          24.258
  87998083.553 9  16693206.298        2661.335          28.336
 114072004.346 4  21362398.355        5669.313           9.707
  92137102.852 9  17797378.567        -461.695          24.418
 106406450.296 7  19903650.221        3872.452          17.172
 106828095.692 5  20390276.095       -1073.684          13.223
 117500437.893 4  22062967.366        1218.190           7.879
 107320104.638 6  20705065.948        4772.348          15.820
 97  2 28 18 57 22.8348420  0  9G31G27G19G 7G18G 2G 3G10G15
  90960236.932 7  17387272.438         326.154          19.301
  95608822.669 9  18101681.481        4653.265          24.270
  87995425.399 9  16692700.469        2655.032          28.488
 114066338.673 4  21361320.253        5662.741           9.891
  92137568.292 9  17797467.140        -468.551          23.926
 106402581.119 7  19902913.932        3865.955          17.094
 106829172.593 5  20390481.024       -1080.177          13.180
 117499223.234 4  22062736.208        1211.217           7.723
 107315335.404 6  20704158.385        4765.625          15.836
 97  2 28 18 57 23.8348477  0  9G31G27G19G 7G18G 2G 3G10G15
  90959914.478 7  17387211.074         318.940          19.215
  95604172.609 9  18100796.605        4646.713          24.203
  87992774.059 9  16692195.938        2647.948          28.668
 114060679.490 4  21360243.342        5655.595           9.621
  92138040.634 9  17797557.024        -474.797          23.895
 106398718.522 7  19902178.893        3859.462          16.957
 106830256.159 5  20390687.222       -1086.879          13.344
 117498015.304 3  22062506.363        1204.042           7.223
 107310572.603 6  20703252.046        4760.167          15.848
 97  2 28 18 57 24.8348533  0  9G31G27G19G 7G18G 2G 3G10G15
  90959598.975 7  17387151.034         312.070          19.348
  95599529.023 9  18099912.959        4640.240          24.945
  87990129.422 9  16691692.684        2641.167          28.488
 114055026.700 4  21359167.773        5649.572           9.371
  92138519.727 9  17797648.192        -482.335          23.379
 106394862.445 7  19901445.091        3853.067          16.992
 106831346.348 5  20390894.680       -1093.631          13.000
 117496814.120 4  22062277.830        1198.196           7.563
 107305816.189 6  20702346.923        4752.971          16.336
 97  2 28 18 57 25.8348590  0  9G31G27G19G 7G18G 2G 3G10G15
  90959290.316 7  17387092.296         305.331          19.316
  95594891.876 9  18099030.540        4633.788          25.012
  87987491.471 9  16691190.704        2634.795          28.512
 114049380.305 4  21358093.335        5643.093           9.414
  92139005.585 8  17797740.645        -488.937          23.215
 106391012.795 7  19900712.514        3846.330          17.055
 106832443.044 5  20391103.376       -1100.241          12.980
 117495619.593 3  22062050.494        1191.490           7.238
 107301066.109 6  20701443.008        4747.637          16.660
 97  2 28 18 57 26.8348646  0  9G31G27G19G 7G18G 2G 3G10G15
  90958988.416 7  17387034.844         298.518          19.543
  95590260.988 9  18098149.307        4627.453          25.348
  87984859.964 9  16690689.951        2628.147          28.344
 114043740.090 4  21357020.179        5637.282           9.207
  92139498.015 8  17797834.349        -495.495          22.910
 106387169.418 7  19899981.134        3840.394          17.527
 106833546.081 5  20391313.279       -1106.186          12.922
 117494431.586 4  22061824.429        1184.947           7.723
 107296322.157 7  20700540.258        4741.045          17.035
 97  2 28 18 57 27.8348703  0  9G31G27G19G 7G18G 2G 3G10G15
  90958693.079 7  17386978.640         292.054          19.477
  95585636.265 9  18097269.246        4621.650          25.191
  87982234.845 9  16690190.412        2622.511          28.059
 114038105.906 4  21355948.143        5630.825           9.250
  92139996.903 8  17797929.281        -502.064          22.828
 106383332.164 7  19899250.916        3834.153          17.828
 106834655.384 5  20391524.374       -1112.027          12.840
 117493249.938 3  22061599.547        1178.230           7.363
 107291584.194 7  20699638.652        4735.497          17.051
 97  2 28 18 57 28.8348760  0  9G31G27G19G 7G18G 2G 3G10G15
  90958403.962 7  17386923.621         286.037          19.391
  95581017.282 9  18096390.279        4616.376          25.609
  87979615.642 9  16689691.996        2616.569          27.691
 114032477.401 4  21354877.163        5626.055           9.043
  92140501.817 8  17798025.359        -507.845          22.621
 106379500.660 7  19898521.792        3828.817          18.855
 106835770.520 5  20391736.580       -1117.711          12.781
 117492074.377 3  22061375.799        1173.205           6.910
 107286851.914 7  20698738.126        4728.924          16.957
 97  2 28 18 57 29.8348816  0  9G31G27G19G 7G18G 2G 3G10G15
  90958120.693 7  17386869.715         280.770          19.824
  95576403.674 9  18095512.345        4611.151          25.359
  87977002.070 9  16689194.645        2610.719          27.363
 114026854.233 4  21353807.196        5620.526           8.652
  92141012.444 8  17798122.524        -513.011          22.695
 106375674.536 7  19897793.695        3823.448          19.176
 106836891.156 5  20391949.830       -1123.196          12.688
 117490904.345 3  22061153.097        1167.900           6.469
 107282124.878 7  20697838.597        4723.844          17.211
 97  2 28 18 57 30.8348873  0  9G31G27G19G 7G18G 2G 3G10G15
  90957842.956 7  17386816.862         275.034          19.531
  95571795.219 9  18094635.388        4606.339          26.363
  87974393.837 9  16688698.314        2605.875          27.836
 114021236.092 4  21352738.176        5616.052           8.613
  92141528.466 8  17798220.716        -518.538          22.699
 106371853.483 7  19897066.562        3818.848          18.805
 106838016.958 5  20392164.065       -1128.174          12.730
 117489739.630 3  22060931.408        1162.265           6.191
 107277402.814 7  20696940.014        4719.283          17.652
 97  2 28 18 57 31.8348927  0  9G31G27G19G 7G18G 2G 3G10G15
  90957570.351 7  17386764.985         270.148          19.512
  95567191.410 9  18093759.320        4601.658          26.582
  87971790.488 9  16688202.912        2601.347          27.961
 114015622.575 4  21351670.060        5611.490           8.504
  92142049.455 8  17798319.853        -522.930          22.656
 106368037.097 7  19896340.316        3814.283          19.020
 106839147.535 5  20392379.209       -1132.566          12.633
 117488579.841 3  22060710.680        1157.333           5.680
 107272685.312 7  20696042.300        4715.488          18.504
 97  2 28 18 57 32.8348986  0  9G31G27G19G 7G18G 2G 3G10G15
  90957302.397 7  17386713.993         265.689          19.625
  95562591.831 9  18092884.056        4597.494          26.488
  87969191.572 9  16687708.354        2597.015          27.902
 114010013.102 4  21350602.622        5607.804           7.859
  92142574.980 8  17798419.853        -526.681          22.496
 106364224.902 7  19895614.867        3810.303          18.211
 106840282.401 5  20392595.167       -1136.715          12.633
 117487424.435 3  22060490.780        1152.474           5.641
 107267971.885 7  20695145.362        4711.281          19.137
 97  2 28 18 57 33.8349043  0  9G31G27G19G 7G18G 2G 3G10G15
  90957038.851 7  17386663.841         261.555          19.473
  95557996.195 9  18092009.546        4593.869          26.449
  87966596.824 9  16687214.592        2592.498          27.715
 114004407.560 4  21349535.824        5603.650           7.875
  92143104.730 8  17798520.657        -531.730          22.531
 106360416.655 7  19894890.167        3806.052          17.707
 106841421.348 5  20392811.903       -1140.932          12.559
 117486273.225 3  22060271.673        1148.949           5.582
 107263262.288 7  20694249.154        4707.765          19.227
 97  2 28 18 57 34.8349099  0  9G31G27G19G 7G18G 2G 3G10G15
  90956779.765 7  17386614.536         256.615          19.434
  95553404.599 9  18091135.810        4589.574          27.059
  87964006.337 9  16686721.638        2588.047          28.453
 113998805.921 4  21348469.838        5599.202           7.773
  92143638.836 8  17798622.290        -536.325          22.422
 106356612.392 7  19894166.227        3802.011          17.828
 106842564.361 5  20393029.412       -1145.391          12.438
 117485126.278 3  22060053.364        1144.399           5.332
 107258556.549 7  20693353.679        4703.671          18.883
 97  2 28 18 57 35.8349156  0  9G31G27G19G 7G18G 2G 3G10G15
  90956525.294 7  17386566.110         252.019          18.930
  95548817.165 9  18090262.860        4585.199          26.875
  87961420.239 9  16686229.522        2583.611          28.461
 113993208.439 4  21347404.630        5595.134           7.543
  92144177.413 8  17798724.774        -540.928          22.414
 106352812.305 7  19893443.080        3797.942          18.207
 106843711.710 5  20393247.747       -1149.420          12.434
 117483983.726 3  22059835.890        1139.869           5.547
 107253854.944 7  20692458.995        4699.432          18.949
 97  2 28 18 57 36.8349212  0  9G31G27G19G 7G18G 2G 3G10G15
  90956275.689 7  17386518.609         247.357          19.152
  95544234.139 9  18089390.751        4580.904          27.035
  87958838.756 9  16685738.281        2579.136          28.379
 113987615.278 4  21346340.208        5591.077           8.078
  92144720.709 8  17798828.155        -545.507          21.992
 106349016.572 7  19892720.763        3793.573          18.688
 106844863.491 5  20393466.925       -1153.766          12.199
 117482845.843 3  22059619.295        1135.441           5.508
 107249157.561 7  20691565.118        4695.265          18.832
 97  2 28 18 57 37.8349269  0  9G31G27G19G 7G18G 2G 3G10G15
  90956030.829 7  17386472.011         242.452          18.938
  95539655.457 9  18088519.471        4576.540          27.480
  87956261.789 9  16685247.898        2574.318          28.484
 113982026.292 4  21345276.614        5586.966           7.895
  92145268.597 8  17798932.409        -550.313          21.902
 106345225.163 7  19891999.269        3789.382          19.027
 106846019.673 5  20393686.941       -1158.384          12.496
 117481712.413 3  22059403.538        1130.484           5.285
 107244464.395 7  20690672.043        4691.007          18.289
 97  2 28 18 57 38.8349326  0  9G31G27G19G 7G18G 2G 3G10G15
  90955790.651 7  17386426.303         237.666          19.215
  95535080.992 9  18087648.990        4572.429          27.230
  87953689.287 9  16684758.364        2570.478          28.355
 113976441.515 3  21344213.835        5582.640           7.453
  92145821.065 8  17799037.534        -554.679          21.711
 106341437.932 7  19891278.571        3785.207          18.680
 106847180.251 5  20393907.792       -1162.703          12.391
 117480583.497 3  22059188.647        1126.467           5.582
 107239775.308 7  20689779.748        4687.433          18.285
 97  2 28 18 57 39.8349382  0  9G31G27G19G 7G18G 2G 3G10G15
  90955555.075 7  17386381.472         233.252          19.199
  95530510.702 9  18086779.304        4568.407          26.961
  87951121.153 9  16684269.663        2566.106          28.750
 113970860.873 3  21343151.797        5578.641           7.453
  92146377.970 8  17799143.504        -559.029          21.629
 106337654.848 7  19890558.661        3780.926          18.348
 106848345.113 5  20394129.457       -1167.266          11.805
 117479458.920 3  22058974.597        1122.808           5.664
 107235090.289 7  20688888.223        4683.009          17.965
 97  2 28 18 57 40.8349439  0  9G31G27G19G 7G18G 2G 3G10G15
  90955324.284 7  17386337.552         228.414          19.398
  95525944.746 9  18085910.439        4563.622          26.266
  87948557.591 9  16683781.834        2561.231          29.016
 113965284.432 4  21342090.563        5574.282           7.586
  92146939.529 8  17799250.361        -563.924          21.145
 106333876.089 7  19889839.575        3776.665          18.453
 106849514.351 5  20394351.956       -1171.071          11.688
 117478339.014 3  22058761.436        1117.831           5.719
 107230409.499 7  20687997.501        4678.475          17.773
 97  2 28 18 57 41.8349496  0  9G31G27G19G 7G18G 2G 3G10G15
  90955098.416 7  17386294.569         223.280          19.648
  95521383.284 9  18085042.429        4559.348          26.074
  87945998.678 9  16683294.890        2556.050          29.332
 113959712.389 4  21341030.175        5569.941           7.805
  92147505.810 8  17799358.118        -568.724          21.363
 106330101.725 7  19889121.326        3772.193          18.383
 106850688.163 5  20394575.324       -1176.090          11.910
 117477223.648 3  22058549.139        1113.021           5.680
 107225733.011 7  20687107.602        4674.673          17.574
 97  2 28 18 57 42.8349552  0  9G31G27G19G 7G18G 2G 3G10G15
  90954877.642 7  17386252.557         217.968          19.984
  95516826.446 9  18084175.294        4554.635          25.438
  87943444.656 9  16682808.879        2551.720          29.293
 113954144.942 3  21339970.624        5565.204           7.379
  92148077.105 8  17799466.829        -573.824          21.609
 106326332.011 7  19888403.964        3767.586          18.641
 106851866.716 5  20394799.595       -1180.685          11.637
 117476113.218 3  22058337.755        1107.885           6.125
 107221061.100 7  20686218.572        4669.596          17.484
 97  2 28 18 57 43.8349609  0  9G31G27G19G 7G18G 2G 3G10G15
  90954662.228 7  17386211.564         212.801          19.914
  95512274.528 9  18083309.095        4549.500          24.992
  87940895.779 9  16682323.845        2546.152          29.391
 113948582.316 3  21338912.010        5560.241           7.391
  92148653.567 8  17799576.523        -579.012          21.684
 106322567.145 7  19887687.526        3762.523          18.352
 106853050.244 5  20395024.812       -1185.905          11.914
 117475007.900 3  22058127.376        1102.675           6.746
 107216393.949 7  20685330.448        4664.177          17.645
 97  2 28 18 57 44.8349666  0  9G31G27G19G 7G18G 2G 3G10G15
  90954452.235 7  17386171.603         207.466          19.848
  95507727.597 9  18082443.845        4544.424          24.828
  87938352.033 9  16681839.790        2541.392          29.469
 113943024.606 4  21337854.320        5555.198           7.672
  92149235.303 8  17799687.223        -584.253          21.777
 106318807.229 7  19886972.029        3757.585          18.230
 106854238.808 5  20395250.988       -1190.943          11.805
 117473907.785 3  22057917.977        1097.362           6.891
 107211731.620 7  20684443.239        4659.580          17.254
 97  2 28 18 57 45.8349722  0  9G31G27G19G 7G18G 2G 3G10G15
  90954247.638 7  17386132.669         201.915          19.828
  95503185.628 9  18081579.539        4539.683          24.801
  87935813.519 9  16681356.730        2536.274          29.559
 113937471.751 4  21336797.551        5550.582           7.961
  92149822.289 8  17799798.922        -589.315          21.820
 106315052.251 7  19886257.471        3752.482          18.531
 106855432.471 5  20395478.135       -1196.184          11.590
 117472812.843 3  22057709.558        1092.050           6.586
 107207074.124 7  20683556.948        4655.461          16.910
 97  2 28 18 57 46.8349779  0  9G31G27G19G 7G18G 2G 3G10G15
  90954048.175 7  17386094.712         197.105          19.715
  95498648.351 9  18080716.125        4535.169          24.305
  87933279.900 9  16680874.599        2531.746          29.168
 113931923.524 4  21335741.642        5546.317           7.695
  92150414.243 8  17799911.565        -594.202          22.203
 106311301.906 7  19885543.793        3747.981          18.574
 106856630.812 5  20395706.172       -1200.678          11.430
 117471722.848 3  22057502.035        1088.161           6.676
 107202421.158 6  20682671.519        4650.818          16.848
 97  2 28 18 57 47.8349836  0  9G31G27G19G 7G18G 2G 3G10G15
  90953853.748 7  17386057.713         191.945          19.277
  95494115.694 9  18079853.592        4530.503          24.277
  87930751.074 9  16680393.380        2526.465          29.074
 113926379.831 4  21334686.571        5541.155           7.664
  92151011.119 8  17800025.146        -599.266          22.152
 106307556.116 7  19884830.985        3743.462          18.730
 106857833.864 5  20395935.104       -1205.231          11.344
 117470637.592 3  22057295.436        1082.730           6.785
 107197772.691 7  20681786.941        4646.401          17.039
 97  2 28 18 57 48.8349892  0  9G31G27G19G 7G18G 2G 3G10G15
  90953664.320 7  17386021.665         186.747          19.098
  95489587.613 9  18078991.931        4525.907          24.363
  87928227.043 9  16679913.075        2521.847          29.254
 113920840.601 4  21333632.295        5536.742           7.867
  92151612.789 8  17800139.640        -603.976          22.383
 106303814.863 7  19884119.038        3738.955          18.855
 106859041.557 5  20396164.919       -1210.101          11.406
 117469557.135 3  22057089.734        1078.348           6.734
 107193128.627 7  20680903.201        4641.544          16.895
 97  2 28 18 57 49.8349949  0  9G31G27G19G 7G18G 2G 3G10G15
  90953479.760 7  17385986.542         182.116          18.578
  95485063.991 9  18078131.117        4521.270          24.660
  87925707.610 9  16679433.645        2516.832          29.328
 113915305.726 4  21332578.947        5532.567           7.543
  92152219.208 8  17800255.039        -608.655          22.750
 106300078.031 7  19883407.936        3734.837          19.289
 106860253.707 5  20396395.583       -1214.195          11.191
 117468481.422 3  22056884.949        1074.010           6.293
 107188488.882 6  20680020.282        4637.838          16.730
 97  2 28 18 57 50.8350005  0  9G31G27G19G 7G18G 2G 3G10G15
  90953300.226 7  17385952.375         176.827          18.504
  95480544.955 9  18077271.177        4516.896          24.563
  87923192.950 9  16678955.125        2512.047          29.066
 113909775.334 4  21331526.447        5528.200           7.547
  92152830.518 8  17800371.370        -613.802          23.145
 106296345.748 7  19882697.699        3729.722          18.828
 106861470.536 5  20396627.136       -1218.810          11.195
 117467410.429 3  22056681.066        1069.319           6.281
 107183853.582 6  20679138.208        4633.457          16.535
 97  2 28 18 57 51.8350062  0  9G31G27G19G 7G18G 2G 3G10G15
  90953126.253 7  17385919.265         170.945          18.574
  95476031.046 9  18076412.216        4511.091          24.543
  87920683.667 9  16678477.627        2506.351          29.176
 113904249.960 3  21330474.864        5522.888           7.430
  92153447.172 8  17800488.719        -619.746          23.141
 106292618.526 7  19881988.424        3724.314          18.805
 106862692.542 5  20396859.676       -1225.874          11.449
 117466344.724 3  22056478.233        1062.509           6.195
 107179223.264 6  20678257.079        4627.710          16.477
 97  2 28 18 57 52.8350119  0  9G31G27G19G 7G18G 2G 3G10G15
  90952958.659 7  17385887.369         164.370          19.082
  95471523.097 9  18075554.388        4504.684          24.660
  87918180.471 9  16678001.287        2499.810          29.676
 113898730.451 3  21329424.356        5516.515           7.418
  92154070.055 8  17800607.253        -626.292          23.227
 106288897.213 7  19881280.273        3718.435          18.539
 106863920.582 5  20397093.363       -1231.148          11.367
 117465285.202 3  22056276.570        1056.010           6.531
 107174598.735 6  20677377.051        4621.575          16.590
